<?xml version="1.0" encoding="UTF-8" standalone="no" ?>
<gpx xmlns="http://www.topografix.com/GPX/1/1" creator="CompeGPS" version="1.1" xmlns:xsi="http://www.w3.org/2001/XMLSchema-instance" xsi:schemaLocation="http://www.topografix.com/GPX/1/1 http://www.topografix.com/GPX/1/1/gpx.xsd">
  <metadata>
    <link href="http://www.compegps.com">
      <text>CompeGPS TEAM, SL</text>
    </link>
    <time>2012-04-18T21:02:37Z</time>
    <bounds maxlat="43.265239" maxlon="-2.777563" minlat="43.168967" minlon="-2.881236"/>
  </metadata>
  <trk>
    <name>mugarriz mugarri (compe GPS)</name>
    <trkseg>
      <trkpt lat="43.231267" lon="-2.838869">
        <ele>63.2</ele>
        <time>0-00-00T00:00:00Z</time>
      </trkpt>
      <trkpt lat="43.230797" lon="-2.839657">
        <ele>63.3</ele>
        <time>0-00-00T00:00:00Z</time>
      </trkpt>
      <trkpt lat="43.230901" lon="-2.840080">
        <ele>61.8</ele>
        <time>0-00-00T00:00:00Z</time>
      </trkpt>
      <trkpt lat="43.230709" lon="-2.840201">
        <ele>63.4</ele>
        <time>0-00-00T00:00:00Z</time>
      </trkpt>
      <trkpt lat="43.230740" lon="-2.840806">
        <ele>61.9</ele>
        <time>0-00-00T00:00:00Z</time>
      </trkpt>
      <trkpt lat="43.230521" lon="-2.841956">
        <ele>57.1</ele>
        <time>0-00-00T00:00:00Z</time>
      </trkpt>
      <trkpt lat="43.230285" lon="-2.842037">
        <ele>58.3</ele>
        <time>0-00-00T00:00:00Z</time>
      </trkpt>
      <trkpt lat="43.229461" lon="-2.843088">
        <ele>66.2</ele>
        <time>0-00-00T00:00:00Z</time>
      </trkpt>
      <trkpt lat="43.230331" lon="-2.843469">
        <ele>56.8</ele>
        <time>0-00-00T00:00:00Z</time>
      </trkpt>
      <trkpt lat="43.229528" lon="-2.848310">
        <ele>41.9</ele>
        <time>0-00-00T00:00:00Z</time>
      </trkpt>
      <trkpt lat="43.229056" lon="-2.848029">
        <ele>40.9</ele>
        <time>0-00-00T00:00:00Z</time>
      </trkpt>
      <trkpt lat="43.228983" lon="-2.848473">
        <ele>40.0</ele>
        <time>0-00-00T00:00:00Z</time>
      </trkpt>
      <trkpt lat="43.229426" lon="-2.848653">
        <ele>40.8</ele>
        <time>0-00-00T00:00:00Z</time>
      </trkpt>
      <trkpt lat="43.229486" lon="-2.849177">
        <ele>40.9</ele>
        <time>0-00-00T00:00:00Z</time>
      </trkpt>
      <trkpt lat="43.229310" lon="-2.850085">
        <ele>42.5</ele>
        <time>0-00-00T00:00:00Z</time>
      </trkpt>
      <trkpt lat="43.229094" lon="-2.853130">
        <ele>46.4</ele>
        <time>0-00-00T00:00:00Z</time>
      </trkpt>
      <trkpt lat="43.228770" lon="-2.853453">
        <ele>47.6</ele>
        <time>0-00-00T00:00:00Z</time>
      </trkpt>
      <trkpt lat="43.228640" lon="-2.854986">
        <ele>46.7</ele>
        <time>0-00-00T00:00:00Z</time>
      </trkpt>
      <trkpt lat="43.228613" lon="-2.857103">
        <ele>70.5</ele>
        <time>0-00-00T00:00:00Z</time>
      </trkpt>
      <trkpt lat="43.228615" lon="-2.858151">
        <ele>83.0</ele>
        <time>0-00-00T00:00:00Z</time>
      </trkpt>
      <trkpt lat="43.228794" lon="-2.859360">
        <ele>78.5</ele>
        <time>0-00-00T00:00:00Z</time>
      </trkpt>
      <trkpt lat="43.228810" lon="-2.860267">
        <ele>73.0</ele>
        <time>0-00-00T00:00:00Z</time>
      </trkpt>
      <trkpt lat="43.228339" lon="-2.860672">
        <ele>77.5</ele>
        <time>0-00-00T00:00:00Z</time>
      </trkpt>
      <trkpt lat="43.228030" lon="-2.860995">
        <ele>77.6</ele>
        <time>0-00-00T00:00:00Z</time>
      </trkpt>
      <trkpt lat="43.227529" lon="-2.861481">
        <ele>74.2</ele>
        <time>0-00-00T00:00:00Z</time>
      </trkpt>
      <trkpt lat="43.226837" lon="-2.861785">
        <ele>75.3</ele>
        <time>0-00-00T00:00:00Z</time>
      </trkpt>
      <trkpt lat="43.226203" lon="-2.861706">
        <ele>84.6</ele>
        <time>0-00-00T00:00:00Z</time>
      </trkpt>
      <trkpt lat="43.226114" lon="-2.861384">
        <ele>90.2</ele>
        <time>0-00-00T00:00:00Z</time>
      </trkpt>
      <trkpt lat="43.225671" lon="-2.861465">
        <ele>90.5</ele>
        <time>0-00-00T00:00:00Z</time>
      </trkpt>
      <trkpt lat="43.224345" lon="-2.861973">
        <ele>99.3</ele>
        <time>0-00-00T00:00:00Z</time>
      </trkpt>
      <trkpt lat="43.223829" lon="-2.861995">
        <ele>100.9</ele>
        <time>0-00-00T00:00:00Z</time>
      </trkpt>
      <trkpt lat="43.223739" lon="-2.860443">
        <ele>127.5</ele>
        <time>0-00-00T00:00:00Z</time>
      </trkpt>
      <trkpt lat="43.223074" lon="-2.859537">
        <ele>147.7</ele>
        <time>0-00-00T00:00:00Z</time>
      </trkpt>
      <trkpt lat="43.222955" lon="-2.859135">
        <ele>154.3</ele>
        <time>0-00-00T00:00:00Z</time>
      </trkpt>
      <trkpt lat="43.222876" lon="-2.858949">
        <ele>157.7</ele>
        <time>0-00-00T00:00:00Z</time>
      </trkpt>
      <trkpt lat="43.222785" lon="-2.858976">
        <ele>158.6</ele>
        <time>0-00-00T00:00:00Z</time>
      </trkpt>
      <trkpt lat="43.222454" lon="-2.859246">
        <ele>160.4</ele>
        <time>0-00-00T00:00:00Z</time>
      </trkpt>
      <trkpt lat="43.222099" lon="-2.859359">
        <ele>165.4</ele>
        <time>0-00-00T00:00:00Z</time>
      </trkpt>
      <trkpt lat="43.222027" lon="-2.859411">
        <ele>166.2</ele>
        <time>0-00-00T00:00:00Z</time>
      </trkpt>
      <trkpt lat="43.221719" lon="-2.859399">
        <ele>171.5</ele>
        <time>0-00-00T00:00:00Z</time>
      </trkpt>
      <trkpt lat="43.221590" lon="-2.859347">
        <ele>174.2</ele>
        <time>0-00-00T00:00:00Z</time>
      </trkpt>
      <trkpt lat="43.221157" lon="-2.859355">
        <ele>181.6</ele>
        <time>0-00-00T00:00:00Z</time>
      </trkpt>
      <trkpt lat="43.220778" lon="-2.859480">
        <ele>187.6</ele>
        <time>0-00-00T00:00:00Z</time>
      </trkpt>
      <trkpt lat="43.220485" lon="-2.859632">
        <ele>191.9</ele>
        <time>0-00-00T00:00:00Z</time>
      </trkpt>
      <trkpt lat="43.220211" lon="-2.859719">
        <ele>196.1</ele>
        <time>0-00-00T00:00:00Z</time>
      </trkpt>
      <trkpt lat="43.219424" lon="-2.860089">
        <ele>205.6</ele>
        <time>0-00-00T00:00:00Z</time>
      </trkpt>
      <trkpt lat="43.219275" lon="-2.860023">
        <ele>205.9</ele>
        <time>0-00-00T00:00:00Z</time>
      </trkpt>
      <trkpt lat="43.218290" lon="-2.860111">
        <ele>195.5</ele>
        <time>0-00-00T00:00:00Z</time>
      </trkpt>
      <trkpt lat="43.217906" lon="-2.860159">
        <ele>187.0</ele>
        <time>0-00-00T00:00:00Z</time>
      </trkpt>
      <trkpt lat="43.217724" lon="-2.860159">
        <ele>180.3</ele>
        <time>0-00-00T00:00:00Z</time>
      </trkpt>
      <trkpt lat="43.217632" lon="-2.860061">
        <ele>178.3</ele>
        <time>0-00-00T00:00:00Z</time>
      </trkpt>
      <trkpt lat="43.217502" lon="-2.859818">
        <ele>176.8</ele>
        <time>0-00-00T00:00:00Z</time>
      </trkpt>
      <trkpt lat="43.217502" lon="-2.859516">
        <ele>180.4</ele>
        <time>0-00-00T00:00:00Z</time>
      </trkpt>
      <trkpt lat="43.217669" lon="-2.858668">
        <ele>189.7</ele>
        <time>0-00-00T00:00:00Z</time>
      </trkpt>
      <trkpt lat="43.217625" lon="-2.858346">
        <ele>190.8</ele>
        <time>0-00-00T00:00:00Z</time>
      </trkpt>
      <trkpt lat="43.217480" lon="-2.858045">
        <ele>191.4</ele>
        <time>0-00-00T00:00:00Z</time>
      </trkpt>
      <trkpt lat="43.217312" lon="-2.857920">
        <ele>191.6</ele>
        <time>0-00-00T00:00:00Z</time>
      </trkpt>
      <trkpt lat="43.217105" lon="-2.857921">
        <ele>190.1</ele>
        <time>0-00-00T00:00:00Z</time>
      </trkpt>
      <trkpt lat="43.216788" lon="-2.857981">
        <ele>188.0</ele>
        <time>0-00-00T00:00:00Z</time>
      </trkpt>
      <trkpt lat="43.216567" lon="-2.858008">
        <ele>187.0</ele>
        <time>0-00-00T00:00:00Z</time>
      </trkpt>
      <trkpt lat="43.216207" lon="-2.857832">
        <ele>190.2</ele>
        <time>0-00-00T00:00:00Z</time>
      </trkpt>
      <trkpt lat="43.215827" lon="-2.857819">
        <ele>194.7</ele>
        <time>0-00-00T00:00:00Z</time>
      </trkpt>
      <trkpt lat="43.215741" lon="-2.857839">
        <ele>195.2</ele>
        <time>0-00-00T00:00:00Z</time>
      </trkpt>
      <trkpt lat="43.215635" lon="-2.857794">
        <ele>197.4</ele>
        <time>0-00-00T00:00:00Z</time>
      </trkpt>
      <trkpt lat="43.215515" lon="-2.857794">
        <ele>198.7</ele>
        <time>0-00-00T00:00:00Z</time>
      </trkpt>
      <trkpt lat="43.215419" lon="-2.857715">
        <ele>201.6</ele>
        <time>0-00-00T00:00:00Z</time>
      </trkpt>
      <trkpt lat="43.215298" lon="-2.857466">
        <ele>209.0</ele>
        <time>0-00-00T00:00:00Z</time>
      </trkpt>
      <trkpt lat="43.215236" lon="-2.857414">
        <ele>211.1</ele>
        <time>0-00-00T00:00:00Z</time>
      </trkpt>
      <trkpt lat="43.215164" lon="-2.857256">
        <ele>215.4</ele>
        <time>0-00-00T00:00:00Z</time>
      </trkpt>
      <trkpt lat="43.214952" lon="-2.856981">
        <ele>223.9</ele>
        <time>0-00-00T00:00:00Z</time>
      </trkpt>
      <trkpt lat="43.214918" lon="-2.856843">
        <ele>227.3</ele>
        <time>0-00-00T00:00:00Z</time>
      </trkpt>
      <trkpt lat="43.214586" lon="-2.856693">
        <ele>233.5</ele>
        <time>0-00-00T00:00:00Z</time>
      </trkpt>
      <trkpt lat="43.214202" lon="-2.856859">
        <ele>229.2</ele>
        <time>0-00-00T00:00:00Z</time>
      </trkpt>
      <trkpt lat="43.214010" lon="-2.856872">
        <ele>228.3</ele>
        <time>0-00-00T00:00:00Z</time>
      </trkpt>
      <trkpt lat="43.213606" lon="-2.856637">
        <ele>230.1</ele>
        <time>0-00-00T00:00:00Z</time>
      </trkpt>
      <trkpt lat="43.213524" lon="-2.856427">
        <ele>232.0</ele>
        <time>0-00-00T00:00:00Z</time>
      </trkpt>
      <trkpt lat="43.213509" lon="-2.856197">
        <ele>233.8</ele>
        <time>0-00-00T00:00:00Z</time>
      </trkpt>
      <trkpt lat="43.213538" lon="-2.855888">
        <ele>233.4</ele>
        <time>0-00-00T00:00:00Z</time>
      </trkpt>
      <trkpt lat="43.213782" lon="-2.855165">
        <ele>239.3</ele>
        <time>0-00-00T00:00:00Z</time>
      </trkpt>
      <trkpt lat="43.213781" lon="-2.854889">
        <ele>239.9</ele>
        <time>0-00-00T00:00:00Z</time>
      </trkpt>
      <trkpt lat="43.213714" lon="-2.854719">
        <ele>238.6</ele>
        <time>0-00-00T00:00:00Z</time>
      </trkpt>
      <trkpt lat="43.213161" lon="-2.854366">
        <ele>223.5</ele>
        <time>0-00-00T00:00:00Z</time>
      </trkpt>
      <trkpt lat="43.212992" lon="-2.854136">
        <ele>219.4</ele>
        <time>0-00-00T00:00:00Z</time>
      </trkpt>
      <trkpt lat="43.212953" lon="-2.853703">
        <ele>220.9</ele>
        <time>0-00-00T00:00:00Z</time>
      </trkpt>
      <trkpt lat="43.213054" lon="-2.853479">
        <ele>226.9</ele>
        <time>0-00-00T00:00:00Z</time>
      </trkpt>
      <trkpt lat="43.212928" lon="-2.852987">
        <ele>226.7</ele>
        <time>0-00-00T00:00:00Z</time>
      </trkpt>
      <trkpt lat="43.212782" lon="-2.851805">
        <ele>245.3</ele>
        <time>0-00-00T00:00:00Z</time>
      </trkpt>
      <trkpt lat="43.212642" lon="-2.851615">
        <ele>248.5</ele>
        <time>0-00-00T00:00:00Z</time>
      </trkpt>
      <trkpt lat="43.212345" lon="-2.851603">
        <ele>247.5</ele>
        <time>0-00-00T00:00:00Z</time>
      </trkpt>
      <trkpt lat="43.211975" lon="-2.851827">
        <ele>241.9</ele>
        <time>0-00-00T00:00:00Z</time>
      </trkpt>
      <trkpt lat="43.211788" lon="-2.851821">
        <ele>240.0</ele>
        <time>0-00-00T00:00:00Z</time>
      </trkpt>
      <trkpt lat="43.211610" lon="-2.851671">
        <ele>240.0</ele>
        <time>0-00-00T00:00:00Z</time>
      </trkpt>
      <trkpt lat="43.211359" lon="-2.851199">
        <ele>242.7</ele>
        <time>0-00-00T00:00:00Z</time>
      </trkpt>
      <trkpt lat="43.211282" lon="-2.851192">
        <ele>241.8</ele>
        <time>0-00-00T00:00:00Z</time>
      </trkpt>
      <trkpt lat="43.211013" lon="-2.851410">
        <ele>240.6</ele>
        <time>0-00-00T00:00:00Z</time>
      </trkpt>
      <trkpt lat="43.210797" lon="-2.851397">
        <ele>242.8</ele>
        <time>0-00-00T00:00:00Z</time>
      </trkpt>
      <trkpt lat="43.210552" lon="-2.851332">
        <ele>246.5</ele>
        <time>0-00-00T00:00:00Z</time>
      </trkpt>
      <trkpt lat="43.210220" lon="-2.851169">
        <ele>249.6</ele>
        <time>0-00-00T00:00:00Z</time>
      </trkpt>
      <trkpt lat="43.209792" lon="-2.850829">
        <ele>250.2</ele>
        <time>0-00-00T00:00:00Z</time>
      </trkpt>
      <trkpt lat="43.209475" lon="-2.850475">
        <ele>248.7</ele>
        <time>0-00-00T00:00:00Z</time>
      </trkpt>
      <trkpt lat="43.209186" lon="-2.849905">
        <ele>252.0</ele>
        <time>0-00-00T00:00:00Z</time>
      </trkpt>
      <trkpt lat="43.209070" lon="-2.849820">
        <ele>250.9</ele>
        <time>0-00-00T00:00:00Z</time>
      </trkpt>
      <trkpt lat="43.208657" lon="-2.849775">
        <ele>242.3</ele>
        <time>0-00-00T00:00:00Z</time>
      </trkpt>
      <trkpt lat="43.208292" lon="-2.849658">
        <ele>240.3</ele>
        <time>0-00-00T00:00:00Z</time>
      </trkpt>
      <trkpt lat="43.208027" lon="-2.849507">
        <ele>242.0</ele>
        <time>0-00-00T00:00:00Z</time>
      </trkpt>
      <trkpt lat="43.207912" lon="-2.849258">
        <ele>251.8</ele>
        <time>0-00-00T00:00:00Z</time>
      </trkpt>
      <trkpt lat="43.207772" lon="-2.849213">
        <ele>252.4</ele>
        <time>0-00-00T00:00:00Z</time>
      </trkpt>
      <trkpt lat="43.207489" lon="-2.849253">
        <ele>247.8</ele>
        <time>0-00-00T00:00:00Z</time>
      </trkpt>
      <trkpt lat="43.207219" lon="-2.849057">
        <ele>253.8</ele>
        <time>0-00-00T00:00:00Z</time>
      </trkpt>
      <trkpt lat="43.206993" lon="-2.848841">
        <ele>261.3</ele>
        <time>0-00-00T00:00:00Z</time>
      </trkpt>
      <trkpt lat="43.206830" lon="-2.848651">
        <ele>267.1</ele>
        <time>0-00-00T00:00:00Z</time>
      </trkpt>
      <trkpt lat="43.206570" lon="-2.848416">
        <ele>273.1</ele>
        <time>0-00-00T00:00:00Z</time>
      </trkpt>
      <trkpt lat="43.206395" lon="-2.848227">
        <ele>278.2</ele>
        <time>0-00-00T00:00:00Z</time>
      </trkpt>
      <trkpt lat="43.205993" lon="-2.848049">
        <ele>284.7</ele>
        <time>0-00-00T00:00:00Z</time>
      </trkpt>
      <trkpt lat="43.205620" lon="-2.848100">
        <ele>285.3</ele>
        <time>0-00-00T00:00:00Z</time>
      </trkpt>
      <trkpt lat="43.205489" lon="-2.848380">
        <ele>279.1</ele>
        <time>0-00-00T00:00:00Z</time>
      </trkpt>
      <trkpt lat="43.204496" lon="-2.848602">
        <ele>300.8</ele>
        <time>0-00-00T00:00:00Z</time>
      </trkpt>
      <trkpt lat="43.204306" lon="-2.848862">
        <ele>308.8</ele>
        <time>0-00-00T00:00:00Z</time>
      </trkpt>
      <trkpt lat="43.204256" lon="-2.849542">
        <ele>315.7</ele>
        <time>0-00-00T00:00:00Z</time>
      </trkpt>
      <trkpt lat="43.204410" lon="-2.849901">
        <ele>310.8</ele>
        <time>0-00-00T00:00:00Z</time>
      </trkpt>
      <trkpt lat="43.204440" lon="-2.850040">
        <ele>310.3</ele>
        <time>0-00-00T00:00:00Z</time>
      </trkpt>
      <trkpt lat="43.203885" lon="-2.850342">
        <ele>326.1</ele>
        <time>0-00-00T00:00:00Z</time>
      </trkpt>
      <trkpt lat="43.203629" lon="-2.850442">
        <ele>332.2</ele>
        <time>0-00-00T00:00:00Z</time>
      </trkpt>
      <trkpt lat="43.203469" lon="-2.850732">
        <ele>332.0</ele>
        <time>0-00-00T00:00:00Z</time>
      </trkpt>
      <trkpt lat="43.202951" lon="-2.851253">
        <ele>339.8</ele>
        <time>0-00-00T00:00:00Z</time>
      </trkpt>
      <trkpt lat="43.202930" lon="-2.851573">
        <ele>332.1</ele>
        <time>0-00-00T00:00:00Z</time>
      </trkpt>
      <trkpt lat="43.202675" lon="-2.852223">
        <ele>321.9</ele>
        <time>0-00-00T00:00:00Z</time>
      </trkpt>
      <trkpt lat="43.202522" lon="-2.852383">
        <ele>322.4</ele>
        <time>0-00-00T00:00:00Z</time>
      </trkpt>
      <trkpt lat="43.202172" lon="-2.852514">
        <ele>331.1</ele>
        <time>0-00-00T00:00:00Z</time>
      </trkpt>
      <trkpt lat="43.201712" lon="-2.852924">
        <ele>331.6</ele>
        <time>0-00-00T00:00:00Z</time>
      </trkpt>
      <trkpt lat="43.201625" lon="-2.853304">
        <ele>325.1</ele>
        <time>0-00-00T00:00:00Z</time>
      </trkpt>
      <trkpt lat="43.201523" lon="-2.853444">
        <ele>323.1</ele>
        <time>0-00-00T00:00:00Z</time>
      </trkpt>
      <trkpt lat="43.201472" lon="-2.853834">
        <ele>314.9</ele>
        <time>0-00-00T00:00:00Z</time>
      </trkpt>
      <trkpt lat="43.201407" lon="-2.854114">
        <ele>308.8</ele>
        <time>0-00-00T00:00:00Z</time>
      </trkpt>
      <trkpt lat="43.201224" lon="-2.854114">
        <ele>308.5</ele>
        <time>0-00-00T00:00:00Z</time>
      </trkpt>
      <trkpt lat="43.200976" lon="-2.854015">
        <ele>312.3</ele>
        <time>0-00-00T00:00:00Z</time>
      </trkpt>
      <trkpt lat="43.200544" lon="-2.853497">
        <ele>324.8</ele>
        <time>0-00-00T00:00:00Z</time>
      </trkpt>
      <trkpt lat="43.200039" lon="-2.852879">
        <ele>342.9</ele>
        <time>0-00-00T00:00:00Z</time>
      </trkpt>
      <trkpt lat="43.199798" lon="-2.852740">
        <ele>346.7</ele>
        <time>0-00-00T00:00:00Z</time>
      </trkpt>
      <trkpt lat="43.199360" lon="-2.852851">
        <ele>358.1</ele>
        <time>0-00-00T00:00:00Z</time>
      </trkpt>
      <trkpt lat="43.199246" lon="-2.852944">
        <ele>362.6</ele>
        <time>0-00-00T00:00:00Z</time>
      </trkpt>
      <trkpt lat="43.199186" lon="-2.852883">
        <ele>364.4</ele>
        <time>0-00-00T00:00:00Z</time>
      </trkpt>
      <trkpt lat="43.199168" lon="-2.852807">
        <ele>364.2</ele>
        <time>0-00-00T00:00:00Z</time>
      </trkpt>
      <trkpt lat="43.199112" lon="-2.852868">
        <ele>366.8</ele>
        <time>0-00-00T00:00:00Z</time>
      </trkpt>
      <trkpt lat="43.199026" lon="-2.852813">
        <ele>369.0</ele>
        <time>0-00-00T00:00:00Z</time>
      </trkpt>
      <trkpt lat="43.198873" lon="-2.852803">
        <ele>374.0</ele>
        <time>0-00-00T00:00:00Z</time>
      </trkpt>
      <trkpt lat="43.198679" lon="-2.852915">
        <ele>381.0</ele>
        <time>0-00-00T00:00:00Z</time>
      </trkpt>
      <trkpt lat="43.198590" lon="-2.852931">
        <ele>382.3</ele>
        <time>0-00-00T00:00:00Z</time>
      </trkpt>
      <trkpt lat="43.198352" lon="-2.853034">
        <ele>386.1</ele>
        <time>0-00-00T00:00:00Z</time>
      </trkpt>
      <trkpt lat="43.198217" lon="-2.853121">
        <ele>388.9</ele>
        <time>0-00-00T00:00:00Z</time>
      </trkpt>
      <trkpt lat="43.198050" lon="-2.853208">
        <ele>393.0</ele>
        <time>0-00-00T00:00:00Z</time>
      </trkpt>
      <trkpt lat="43.197894" lon="-2.853427">
        <ele>399.2</ele>
        <time>0-00-00T00:00:00Z</time>
      </trkpt>
      <trkpt lat="43.197614" lon="-2.853581">
        <ele>406.6</ele>
        <time>0-00-00T00:00:00Z</time>
      </trkpt>
      <trkpt lat="43.197320" lon="-2.853704">
        <ele>414.4</ele>
        <time>0-00-00T00:00:00Z</time>
      </trkpt>
      <trkpt lat="43.197056" lon="-2.853914">
        <ele>421.6</ele>
        <time>0-00-00T00:00:00Z</time>
      </trkpt>
      <trkpt lat="43.196884" lon="-2.853970">
        <ele>425.1</ele>
        <time>0-00-00T00:00:00Z</time>
      </trkpt>
      <trkpt lat="43.196564" lon="-2.854119">
        <ele>433.2</ele>
        <time>0-00-00T00:00:00Z</time>
      </trkpt>
      <trkpt lat="43.196151" lon="-2.854441">
        <ele>446.5</ele>
        <time>0-00-00T00:00:00Z</time>
      </trkpt>
      <trkpt lat="43.195987" lon="-2.854564">
        <ele>450.4</ele>
        <time>0-00-00T00:00:00Z</time>
      </trkpt>
      <trkpt lat="43.195730" lon="-2.854656">
        <ele>453.1</ele>
        <time>0-00-00T00:00:00Z</time>
      </trkpt>
      <trkpt lat="43.195562" lon="-2.854703">
        <ele>455.1</ele>
        <time>0-00-00T00:00:00Z</time>
      </trkpt>
      <trkpt lat="43.195335" lon="-2.854871">
        <ele>457.5</ele>
        <time>0-00-00T00:00:00Z</time>
      </trkpt>
      <trkpt lat="43.195019" lon="-2.855173">
        <ele>461.1</ele>
        <time>0-00-00T00:00:00Z</time>
      </trkpt>
      <trkpt lat="43.194565" lon="-2.855877">
        <ele>484.6</ele>
        <time>0-00-00T00:00:00Z</time>
      </trkpt>
      <trkpt lat="43.194297" lon="-2.856271">
        <ele>495.4</ele>
        <time>0-00-00T00:00:00Z</time>
      </trkpt>
      <trkpt lat="43.194193" lon="-2.856444">
        <ele>499.0</ele>
        <time>0-00-00T00:00:00Z</time>
      </trkpt>
      <trkpt lat="43.194115" lon="-2.856628">
        <ele>504.0</ele>
        <time>0-00-00T00:00:00Z</time>
      </trkpt>
      <trkpt lat="43.194000" lon="-2.856883">
        <ele>512.6</ele>
        <time>0-00-00T00:00:00Z</time>
      </trkpt>
      <trkpt lat="43.193844" lon="-2.857255">
        <ele>522.0</ele>
        <time>0-00-00T00:00:00Z</time>
      </trkpt>
      <trkpt lat="43.193401" lon="-2.857720">
        <ele>529.0</ele>
        <time>0-00-00T00:00:00Z</time>
      </trkpt>
      <trkpt lat="43.193189" lon="-2.857940">
        <ele>536.6</ele>
        <time>0-00-00T00:00:00Z</time>
      </trkpt>
      <trkpt lat="43.192999" lon="-2.858226">
        <ele>544.0</ele>
        <time>0-00-00T00:00:00Z</time>
      </trkpt>
      <trkpt lat="43.192619" lon="-2.858624">
        <ele>545.1</ele>
        <time>0-00-00T00:00:00Z</time>
      </trkpt>
      <trkpt lat="43.192619" lon="-2.858706">
        <ele>546.0</ele>
        <time>0-00-00T00:00:00Z</time>
      </trkpt>
      <trkpt lat="43.192534" lon="-2.858777">
        <ele>543.8</ele>
        <time>0-00-00T00:00:00Z</time>
      </trkpt>
      <trkpt lat="43.192448" lon="-2.858976">
        <ele>537.3</ele>
        <time>0-00-00T00:00:00Z</time>
      </trkpt>
      <trkpt lat="43.192430" lon="-2.859058">
        <ele>535.1</ele>
        <time>0-00-00T00:00:00Z</time>
      </trkpt>
      <trkpt lat="43.192284" lon="-2.859053">
        <ele>531.7</ele>
        <time>0-00-00T00:00:00Z</time>
      </trkpt>
      <trkpt lat="43.192202" lon="-2.858967">
        <ele>531.5</ele>
        <time>0-00-00T00:00:00Z</time>
      </trkpt>
      <trkpt lat="43.191971" lon="-2.858901">
        <ele>527.4</ele>
        <time>0-00-00T00:00:00Z</time>
      </trkpt>
      <trkpt lat="43.191897" lon="-2.858891">
        <ele>525.9</ele>
        <time>0-00-00T00:00:00Z</time>
      </trkpt>
      <trkpt lat="43.191482" lon="-2.858704">
        <ele>519.3</ele>
        <time>0-00-00T00:00:00Z</time>
      </trkpt>
      <trkpt lat="43.191363" lon="-2.858668">
        <ele>516.6</ele>
        <time>0-00-00T00:00:00Z</time>
      </trkpt>
      <trkpt lat="43.191233" lon="-2.858679">
        <ele>514.0</ele>
        <time>0-00-00T00:00:00Z</time>
      </trkpt>
      <trkpt lat="43.191020" lon="-2.858654">
        <ele>513.0</ele>
        <time>0-00-00T00:00:00Z</time>
      </trkpt>
      <trkpt lat="43.190371" lon="-2.858406">
        <ele>508.9</ele>
        <time>0-00-00T00:00:00Z</time>
      </trkpt>
      <trkpt lat="43.190032" lon="-2.858422">
        <ele>500.6</ele>
        <time>0-00-00T00:00:00Z</time>
      </trkpt>
      <trkpt lat="43.189876" lon="-2.858550">
        <ele>497.4</ele>
        <time>0-00-00T00:00:00Z</time>
      </trkpt>
      <trkpt lat="43.189846" lon="-2.858698">
        <ele>497.4</ele>
        <time>0-00-00T00:00:00Z</time>
      </trkpt>
      <trkpt lat="43.189325" lon="-2.859469">
        <ele>479.4</ele>
        <time>0-00-00T00:00:00Z</time>
      </trkpt>
      <trkpt lat="43.189199" lon="-2.859653">
        <ele>474.4</ele>
        <time>0-00-00T00:00:00Z</time>
      </trkpt>
      <trkpt lat="43.189132" lon="-2.860086">
        <ele>467.3</ele>
        <time>0-00-00T00:00:00Z</time>
      </trkpt>
      <trkpt lat="43.189136" lon="-2.860361">
        <ele>463.9</ele>
        <time>0-00-00T00:00:00Z</time>
      </trkpt>
      <trkpt lat="43.188865" lon="-2.860632">
        <ele>456.0</ele>
        <time>0-00-00T00:00:00Z</time>
      </trkpt>
      <trkpt lat="43.188734" lon="-2.860673">
        <ele>454.1</ele>
        <time>0-00-00T00:00:00Z</time>
      </trkpt>
      <trkpt lat="43.188428" lon="-2.860500">
        <ele>450.3</ele>
        <time>0-00-00T00:00:00Z</time>
      </trkpt>
      <trkpt lat="43.188253" lon="-2.860572">
        <ele>445.3</ele>
        <time>0-00-00T00:00:00Z</time>
      </trkpt>
      <trkpt lat="43.188004" lon="-2.860578">
        <ele>439.8</ele>
        <time>0-00-00T00:00:00Z</time>
      </trkpt>
      <trkpt lat="43.187735" lon="-2.860640">
        <ele>433.9</ele>
        <time>0-00-00T00:00:00Z</time>
      </trkpt>
      <trkpt lat="43.187437" lon="-2.860636">
        <ele>428.8</ele>
        <time>0-00-00T00:00:00Z</time>
      </trkpt>
      <trkpt lat="43.187225" lon="-2.860723">
        <ele>424.5</ele>
        <time>0-00-00T00:00:00Z</time>
      </trkpt>
      <trkpt lat="43.186859" lon="-2.860775">
        <ele>417.0</ele>
        <time>0-00-00T00:00:00Z</time>
      </trkpt>
      <trkpt lat="43.186625" lon="-2.860816">
        <ele>411.7</ele>
        <time>0-00-00T00:00:00Z</time>
      </trkpt>
      <trkpt lat="43.186509" lon="-2.860883">
        <ele>408.9</ele>
        <time>0-00-00T00:00:00Z</time>
      </trkpt>
      <trkpt lat="43.186087" lon="-2.860866">
        <ele>398.1</ele>
        <time>0-00-00T00:00:00Z</time>
      </trkpt>
      <trkpt lat="43.185564" lon="-2.860995">
        <ele>381.0</ele>
        <time>0-00-00T00:00:00Z</time>
      </trkpt>
      <trkpt lat="43.185464" lon="-2.861240">
        <ele>377.5</ele>
        <time>0-00-00T00:00:00Z</time>
      </trkpt>
      <trkpt lat="43.185057" lon="-2.861878">
        <ele>367.3</ele>
        <time>0-00-00T00:00:00Z</time>
      </trkpt>
      <trkpt lat="43.184607" lon="-2.862789">
        <ele>363.6</ele>
        <time>0-00-00T00:00:00Z</time>
      </trkpt>
      <trkpt lat="43.184579" lon="-2.863572">
        <ele>367.0</ele>
        <time>0-00-00T00:00:00Z</time>
      </trkpt>
      <trkpt lat="43.184108" lon="-2.864357">
        <ele>364.4</ele>
        <time>0-00-00T00:00:00Z</time>
      </trkpt>
      <trkpt lat="43.184029" lon="-2.864661">
        <ele>367.6</ele>
        <time>0-00-00T00:00:00Z</time>
      </trkpt>
      <trkpt lat="43.183528" lon="-2.864975">
        <ele>359.8</ele>
        <time>0-00-00T00:00:00Z</time>
      </trkpt>
      <trkpt lat="43.183393" lon="-2.865201">
        <ele>359.9</ele>
        <time>0-00-00T00:00:00Z</time>
      </trkpt>
      <trkpt lat="43.183186" lon="-2.865965">
        <ele>367.1</ele>
        <time>0-00-00T00:00:00Z</time>
      </trkpt>
      <trkpt lat="43.182579" lon="-2.866936">
        <ele>373.6</ele>
        <time>0-00-00T00:00:00Z</time>
      </trkpt>
      <trkpt lat="43.181698" lon="-2.867447">
        <ele>370.4</ele>
        <time>0-00-00T00:00:00Z</time>
      </trkpt>
      <trkpt lat="43.181455" lon="-2.867467">
        <ele>367.1</ele>
        <time>0-00-00T00:00:00Z</time>
      </trkpt>
      <trkpt lat="43.181061" lon="-2.867723">
        <ele>368.6</ele>
        <time>0-00-00T00:00:00Z</time>
      </trkpt>
      <trkpt lat="43.180288" lon="-2.867969">
        <ele>370.7</ele>
        <time>0-00-00T00:00:00Z</time>
      </trkpt>
      <trkpt lat="43.179952" lon="-2.868342">
        <ele>375.3</ele>
        <time>0-00-00T00:00:00Z</time>
      </trkpt>
      <trkpt lat="43.179572" lon="-2.868402">
        <ele>379.3</ele>
        <time>0-00-00T00:00:00Z</time>
      </trkpt>
      <trkpt lat="43.179048" lon="-2.867992">
        <ele>394.3</ele>
        <time>0-00-00T00:00:00Z</time>
      </trkpt>
      <trkpt lat="43.178919" lon="-2.867425">
        <ele>395.6</ele>
        <time>0-00-00T00:00:00Z</time>
      </trkpt>
      <trkpt lat="43.178825" lon="-2.867190">
        <ele>396.7</ele>
        <time>0-00-00T00:00:00Z</time>
      </trkpt>
      <trkpt lat="43.178560" lon="-2.867093">
        <ele>403.7</ele>
        <time>0-00-00T00:00:00Z</time>
      </trkpt>
      <trkpt lat="43.178474" lon="-2.866809">
        <ele>403.9</ele>
        <time>0-00-00T00:00:00Z</time>
      </trkpt>
      <trkpt lat="43.178093" lon="-2.866478">
        <ele>414.0</ele>
        <time>0-00-00T00:00:00Z</time>
      </trkpt>
      <trkpt lat="43.178064" lon="-2.866027">
        <ele>413.2</ele>
        <time>0-00-00T00:00:00Z</time>
      </trkpt>
      <trkpt lat="43.177999" lon="-2.865803">
        <ele>414.7</ele>
        <time>0-00-00T00:00:00Z</time>
      </trkpt>
      <trkpt lat="43.178012" lon="-2.864638">
        <ele>418.4</ele>
        <time>0-00-00T00:00:00Z</time>
      </trkpt>
      <trkpt lat="43.177861" lon="-2.864315">
        <ele>421.8</ele>
        <time>0-00-00T00:00:00Z</time>
      </trkpt>
      <trkpt lat="43.177975" lon="-2.863718">
        <ele>420.8</ele>
        <time>0-00-00T00:00:00Z</time>
      </trkpt>
      <trkpt lat="43.177938" lon="-2.862817">
        <ele>427.5</ele>
        <time>0-00-00T00:00:00Z</time>
      </trkpt>
      <trkpt lat="43.177629" lon="-2.862241">
        <ele>436.4</ele>
        <time>0-00-00T00:00:00Z</time>
      </trkpt>
      <trkpt lat="43.177499" lon="-2.861507">
        <ele>444.0</ele>
        <time>0-00-00T00:00:00Z</time>
      </trkpt>
      <trkpt lat="43.177570" lon="-2.860890">
        <ele>443.0</ele>
        <time>0-00-00T00:00:00Z</time>
      </trkpt>
      <trkpt lat="43.177469" lon="-2.860509">
        <ele>447.1</ele>
        <time>0-00-00T00:00:00Z</time>
      </trkpt>
      <trkpt lat="43.177726" lon="-2.860038">
        <ele>440.8</ele>
        <time>0-00-00T00:00:00Z</time>
      </trkpt>
      <trkpt lat="43.177704" lon="-2.859529">
        <ele>445.4</ele>
        <time>0-00-00T00:00:00Z</time>
      </trkpt>
      <trkpt lat="43.177344" lon="-2.858630">
        <ele>458.5</ele>
        <time>0-00-00T00:00:00Z</time>
      </trkpt>
      <trkpt lat="43.176570" lon="-2.858279">
        <ele>477.3</ele>
        <time>0-00-00T00:00:00Z</time>
      </trkpt>
      <trkpt lat="43.176340" lon="-2.858045">
        <ele>483.3</ele>
        <time>0-00-00T00:00:00Z</time>
      </trkpt>
      <trkpt lat="43.176254" lon="-2.857732">
        <ele>484.5</ele>
        <time>0-00-00T00:00:00Z</time>
      </trkpt>
      <trkpt lat="43.176166" lon="-2.856284">
        <ele>481.5</ele>
        <time>0-00-00T00:00:00Z</time>
      </trkpt>
      <trkpt lat="43.175773" lon="-2.857097">
        <ele>490.3</ele>
        <time>0-00-00T00:00:00Z</time>
      </trkpt>
      <trkpt lat="43.175437" lon="-2.857539">
        <ele>496.0</ele>
        <time>0-00-00T00:00:00Z</time>
      </trkpt>
      <trkpt lat="43.175287" lon="-2.858009">
        <ele>491.6</ele>
        <time>0-00-00T00:00:00Z</time>
      </trkpt>
      <trkpt lat="43.174965" lon="-2.857951">
        <ele>485.2</ele>
        <time>0-00-00T00:00:00Z</time>
      </trkpt>
      <trkpt lat="43.174648" lon="-2.857189">
        <ele>497.3</ele>
        <time>0-00-00T00:00:00Z</time>
      </trkpt>
      <trkpt lat="43.173866" lon="-2.856222">
        <ele>510.6</ele>
        <time>0-00-00T00:00:00Z</time>
      </trkpt>
      <trkpt lat="43.173707" lon="-2.855136">
        <ele>515.4</ele>
        <time>0-00-00T00:00:00Z</time>
      </trkpt>
      <trkpt lat="43.172980" lon="-2.853141">
        <ele>526.8</ele>
        <time>0-00-00T00:00:00Z</time>
      </trkpt>
      <trkpt lat="43.172413" lon="-2.851949">
        <ele>517.1</ele>
        <time>0-00-00T00:00:00Z</time>
      </trkpt>
      <trkpt lat="43.172133" lon="-2.851587">
        <ele>511.9</ele>
        <time>0-00-00T00:00:00Z</time>
      </trkpt>
      <trkpt lat="43.171953" lon="-2.850991">
        <ele>516.0</ele>
        <time>0-00-00T00:00:00Z</time>
      </trkpt>
      <trkpt lat="43.171651" lon="-2.850659">
        <ele>519.8</ele>
        <time>0-00-00T00:00:00Z</time>
      </trkpt>
      <trkpt lat="43.170632" lon="-2.849253">
        <ele>517.4</ele>
        <time>0-00-00T00:00:00Z</time>
      </trkpt>
      <trkpt lat="43.169789" lon="-2.846505">
        <ele>467.1</ele>
        <time>0-00-00T00:00:00Z</time>
      </trkpt>
      <trkpt lat="43.169575" lon="-2.846163">
        <ele>461.5</ele>
        <time>0-00-00T00:00:00Z</time>
      </trkpt>
      <trkpt lat="43.169670" lon="-2.845414">
        <ele>468.6</ele>
        <time>0-00-00T00:00:00Z</time>
      </trkpt>
      <trkpt lat="43.169913" lon="-2.844997">
        <ele>474.0</ele>
        <time>0-00-00T00:00:00Z</time>
      </trkpt>
      <trkpt lat="43.169851" lon="-2.844402">
        <ele>484.8</ele>
        <time>0-00-00T00:00:00Z</time>
      </trkpt>
      <trkpt lat="43.168967" lon="-2.841694">
        <ele>478.5</ele>
        <time>0-00-00T00:00:00Z</time>
      </trkpt>
      <trkpt lat="43.169237" lon="-2.841527">
        <ele>481.9</ele>
        <time>0-00-00T00:00:00Z</time>
      </trkpt>
      <trkpt lat="43.169846" lon="-2.841275">
        <ele>486.5</ele>
        <time>0-00-00T00:00:00Z</time>
      </trkpt>
      <trkpt lat="43.170402" lon="-2.840786">
        <ele>496.7</ele>
        <time>0-00-00T00:00:00Z</time>
      </trkpt>
      <trkpt lat="43.170794" lon="-2.840808">
        <ele>496.2</ele>
        <time>0-00-00T00:00:00Z</time>
      </trkpt>
      <trkpt lat="43.171115" lon="-2.840736">
        <ele>499.2</ele>
        <time>0-00-00T00:00:00Z</time>
      </trkpt>
      <trkpt lat="43.171464" lon="-2.841056">
        <ele>488.3</ele>
        <time>0-00-00T00:00:00Z</time>
      </trkpt>
      <trkpt lat="43.172091" lon="-2.841232">
        <ele>489.1</ele>
        <time>0-00-00T00:00:00Z</time>
      </trkpt>
      <trkpt lat="43.172640" lon="-2.841254">
        <ele>499.1</ele>
        <time>0-00-00T00:00:00Z</time>
      </trkpt>
      <trkpt lat="43.173135" lon="-2.840801">
        <ele>521.0</ele>
        <time>0-00-00T00:00:00Z</time>
      </trkpt>
      <trkpt lat="43.173830" lon="-2.839966">
        <ele>543.2</ele>
        <time>0-00-00T00:00:00Z</time>
      </trkpt>
      <trkpt lat="43.174300" lon="-2.839810">
        <ele>547.0</ele>
        <time>0-00-00T00:00:00Z</time>
      </trkpt>
      <trkpt lat="43.174596" lon="-2.839928">
        <ele>541.2</ele>
        <time>0-00-00T00:00:00Z</time>
      </trkpt>
      <trkpt lat="43.174779" lon="-2.839892">
        <ele>545.6</ele>
        <time>0-00-00T00:00:00Z</time>
      </trkpt>
      <trkpt lat="43.175526" lon="-2.838986">
        <ele>562.1</ele>
        <time>0-00-00T00:00:00Z</time>
      </trkpt>
      <trkpt lat="43.175829" lon="-2.838509">
        <ele>559.9</ele>
        <time>0-00-00T00:00:00Z</time>
      </trkpt>
      <trkpt lat="43.176141" lon="-2.837366">
        <ele>559.8</ele>
        <time>0-00-00T00:00:00Z</time>
      </trkpt>
      <trkpt lat="43.176722" lon="-2.836032">
        <ele>550.3</ele>
        <time>0-00-00T00:00:00Z</time>
      </trkpt>
      <trkpt lat="43.176955" lon="-2.835009">
        <ele>543.7</ele>
        <time>0-00-00T00:00:00Z</time>
      </trkpt>
      <trkpt lat="43.177006" lon="-2.834331">
        <ele>543.5</ele>
        <time>0-00-00T00:00:00Z</time>
      </trkpt>
      <trkpt lat="43.177188" lon="-2.834021">
        <ele>539.0</ele>
        <time>0-00-00T00:00:00Z</time>
      </trkpt>
      <trkpt lat="43.177048" lon="-2.833165">
        <ele>548.1</ele>
        <time>0-00-00T00:00:00Z</time>
      </trkpt>
      <trkpt lat="43.177012" lon="-2.832571">
        <ele>550.6</ele>
        <time>0-00-00T00:00:00Z</time>
      </trkpt>
      <trkpt lat="43.177046" lon="-2.832178">
        <ele>549.7</ele>
        <time>0-00-00T00:00:00Z</time>
      </trkpt>
      <trkpt lat="43.177472" lon="-2.831796">
        <ele>529.0</ele>
        <time>0-00-00T00:00:00Z</time>
      </trkpt>
      <trkpt lat="43.177706" lon="-2.831474">
        <ele>520.9</ele>
        <time>0-00-00T00:00:00Z</time>
      </trkpt>
      <trkpt lat="43.177871" lon="-2.831367">
        <ele>514.3</ele>
        <time>0-00-00T00:00:00Z</time>
      </trkpt>
      <trkpt lat="43.178142" lon="-2.831722">
        <ele>498.9</ele>
        <time>0-00-00T00:00:00Z</time>
      </trkpt>
      <trkpt lat="43.178543" lon="-2.831995">
        <ele>477.3</ele>
        <time>0-00-00T00:00:00Z</time>
      </trkpt>
      <trkpt lat="43.178934" lon="-2.831982">
        <ele>464.9</ele>
        <time>0-00-00T00:00:00Z</time>
      </trkpt>
      <trkpt lat="43.179387" lon="-2.831683">
        <ele>463.7</ele>
        <time>0-00-00T00:00:00Z</time>
      </trkpt>
      <trkpt lat="43.179673" lon="-2.831313">
        <ele>468.8</ele>
        <time>0-00-00T00:00:00Z</time>
      </trkpt>
      <trkpt lat="43.179908" lon="-2.831360">
        <ele>459.2</ele>
        <time>0-00-00T00:00:00Z</time>
      </trkpt>
      <trkpt lat="43.180221" lon="-2.831264">
        <ele>452.8</ele>
        <time>0-00-00T00:00:00Z</time>
      </trkpt>
      <trkpt lat="43.180560" lon="-2.830775">
        <ele>457.9</ele>
        <time>0-00-00T00:00:00Z</time>
      </trkpt>
      <trkpt lat="43.180559" lon="-2.830335">
        <ele>470.1</ele>
        <time>0-00-00T00:00:00Z</time>
      </trkpt>
      <trkpt lat="43.180854" lon="-2.829775">
        <ele>465.3</ele>
        <time>0-00-00T00:00:00Z</time>
      </trkpt>
      <trkpt lat="43.181063" lon="-2.829572">
        <ele>458.3</ele>
        <time>0-00-00T00:00:00Z</time>
      </trkpt>
      <trkpt lat="43.181366" lon="-2.828560">
        <ele>473.9</ele>
        <time>0-00-00T00:00:00Z</time>
      </trkpt>
      <trkpt lat="43.181549" lon="-2.828714">
        <ele>465.6</ele>
        <time>0-00-00T00:00:00Z</time>
      </trkpt>
      <trkpt lat="43.181619" lon="-2.828952">
        <ele>459.1</ele>
        <time>0-00-00T00:00:00Z</time>
      </trkpt>
      <trkpt lat="43.181767" lon="-2.828939">
        <ele>456.3</ele>
        <time>0-00-00T00:00:00Z</time>
      </trkpt>
      <trkpt lat="43.182001" lon="-2.828439">
        <ele>458.8</ele>
        <time>0-00-00T00:00:00Z</time>
      </trkpt>
      <trkpt lat="43.182235" lon="-2.828105">
        <ele>457.1</ele>
        <time>0-00-00T00:00:00Z</time>
      </trkpt>
      <trkpt lat="43.182479" lon="-2.828045">
        <ele>450.3</ele>
        <time>0-00-00T00:00:00Z</time>
      </trkpt>
      <trkpt lat="43.183097" lon="-2.828257">
        <ele>437.2</ele>
        <time>0-00-00T00:00:00Z</time>
      </trkpt>
      <trkpt lat="43.183341" lon="-2.828423">
        <ele>436.0</ele>
        <time>0-00-00T00:00:00Z</time>
      </trkpt>
      <trkpt lat="43.184116" lon="-2.828384">
        <ele>415.8</ele>
        <time>0-00-00T00:00:00Z</time>
      </trkpt>
      <trkpt lat="43.184656" lon="-2.828406">
        <ele>404.0</ele>
        <time>0-00-00T00:00:00Z</time>
      </trkpt>
      <trkpt lat="43.185030" lon="-2.828215">
        <ele>388.3</ele>
        <time>0-00-00T00:00:00Z</time>
      </trkpt>
      <trkpt lat="43.185386" lon="-2.827845">
        <ele>368.6</ele>
        <time>0-00-00T00:00:00Z</time>
      </trkpt>
      <trkpt lat="43.185686" lon="-2.827917">
        <ele>363.9</ele>
        <time>0-00-00T00:00:00Z</time>
      </trkpt>
      <trkpt lat="43.186664" lon="-2.827379">
        <ele>333.1</ele>
        <time>0-00-00T00:00:00Z</time>
      </trkpt>
      <trkpt lat="43.186808" lon="-2.826855">
        <ele>326.0</ele>
        <time>0-00-00T00:00:00Z</time>
      </trkpt>
      <trkpt lat="43.187140" lon="-2.826830">
        <ele>318.1</ele>
        <time>0-00-00T00:00:00Z</time>
      </trkpt>
      <trkpt lat="43.187455" lon="-2.826899">
        <ele>313.8</ele>
        <time>0-00-00T00:00:00Z</time>
      </trkpt>
      <trkpt lat="43.187744" lon="-2.826910">
        <ele>309.4</ele>
        <time>0-00-00T00:00:00Z</time>
      </trkpt>
      <trkpt lat="43.188051" lon="-2.826699">
        <ele>306.2</ele>
        <time>0-00-00T00:00:00Z</time>
      </trkpt>
      <trkpt lat="43.188332" lon="-2.826780">
        <ele>305.2</ele>
        <time>0-00-00T00:00:00Z</time>
      </trkpt>
      <trkpt lat="43.188715" lon="-2.827093">
        <ele>301.9</ele>
        <time>0-00-00T00:00:00Z</time>
      </trkpt>
      <trkpt lat="43.188902" lon="-2.826859">
        <ele>300.7</ele>
        <time>0-00-00T00:00:00Z</time>
      </trkpt>
      <trkpt lat="43.188987" lon="-2.826417">
        <ele>302.0</ele>
        <time>0-00-00T00:00:00Z</time>
      </trkpt>
      <trkpt lat="43.189251" lon="-2.826486">
        <ele>297.0</ele>
        <time>0-00-00T00:00:00Z</time>
      </trkpt>
      <trkpt lat="43.190058" lon="-2.825750">
        <ele>278.9</ele>
        <time>0-00-00T00:00:00Z</time>
      </trkpt>
      <trkpt lat="43.190339" lon="-2.825749">
        <ele>272.7</ele>
        <time>0-00-00T00:00:00Z</time>
      </trkpt>
      <trkpt lat="43.190688" lon="-2.825515">
        <ele>267.4</ele>
        <time>0-00-00T00:00:00Z</time>
      </trkpt>
      <trkpt lat="43.191326" lon="-2.825280">
        <ele>256.7</ele>
        <time>0-00-00T00:00:00Z</time>
      </trkpt>
      <trkpt lat="43.191607" lon="-2.825070">
        <ele>256.5</ele>
        <time>0-00-00T00:00:00Z</time>
      </trkpt>
      <trkpt lat="43.191837" lon="-2.825046">
        <ele>255.0</ele>
        <time>0-00-00T00:00:00Z</time>
      </trkpt>
      <trkpt lat="43.192126" lon="-2.824812">
        <ele>254.3</ele>
        <time>0-00-00T00:00:00Z</time>
      </trkpt>
      <trkpt lat="43.192713" lon="-2.824612">
        <ele>257.1</ele>
        <time>0-00-00T00:00:00Z</time>
      </trkpt>
      <trkpt lat="43.192874" lon="-2.824367">
        <ele>254.3</ele>
        <time>0-00-00T00:00:00Z</time>
      </trkpt>
      <trkpt lat="43.193266" lon="-2.824657">
        <ele>258.6</ele>
        <time>0-00-00T00:00:00Z</time>
      </trkpt>
      <trkpt lat="43.193701" lon="-2.824842">
        <ele>259.2</ele>
        <time>0-00-00T00:00:00Z</time>
      </trkpt>
      <trkpt lat="43.193719" lon="-2.825226">
        <ele>258.3</ele>
        <time>0-00-00T00:00:00Z</time>
      </trkpt>
      <trkpt lat="43.193652" lon="-2.825971">
        <ele>251.5</ele>
        <time>0-00-00T00:00:00Z</time>
      </trkpt>
      <trkpt lat="43.193959" lon="-2.826296">
        <ele>254.6</ele>
        <time>0-00-00T00:00:00Z</time>
      </trkpt>
      <trkpt lat="43.194079" lon="-2.826900">
        <ele>250.0</ele>
        <time>0-00-00T00:00:00Z</time>
      </trkpt>
      <trkpt lat="43.194820" lon="-2.826898">
        <ele>275.9</ele>
        <time>0-00-00T00:00:00Z</time>
      </trkpt>
      <trkpt lat="43.195101" lon="-2.827060">
        <ele>284.5</ele>
        <time>0-00-00T00:00:00Z</time>
      </trkpt>
      <trkpt lat="43.195655" lon="-2.827442">
        <ele>296.1</ele>
        <time>0-00-00T00:00:00Z</time>
      </trkpt>
      <trkpt lat="43.196159" lon="-2.828209">
        <ele>294.8</ele>
        <time>0-00-00T00:00:00Z</time>
      </trkpt>
      <trkpt lat="43.196347" lon="-2.828778">
        <ele>282.1</ele>
        <time>0-00-00T00:00:00Z</time>
      </trkpt>
      <trkpt lat="43.196569" lon="-2.828847">
        <ele>282.0</ele>
        <time>0-00-00T00:00:00Z</time>
      </trkpt>
      <trkpt lat="43.197054" lon="-2.828846">
        <ele>288.4</ele>
        <time>0-00-00T00:00:00Z</time>
      </trkpt>
      <trkpt lat="43.197352" lon="-2.828868">
        <ele>286.6</ele>
        <time>0-00-00T00:00:00Z</time>
      </trkpt>
      <trkpt lat="43.198059" lon="-2.828668">
        <ele>285.3</ele>
        <time>0-00-00T00:00:00Z</time>
      </trkpt>
      <trkpt lat="43.198390" lon="-2.828422">
        <ele>280.4</ele>
        <time>0-00-00T00:00:00Z</time>
      </trkpt>
      <trkpt lat="43.198398" lon="-2.828143">
        <ele>285.7</ele>
        <time>0-00-00T00:00:00Z</time>
      </trkpt>
      <trkpt lat="43.198620" lon="-2.828107">
        <ele>280.4</ele>
        <time>0-00-00T00:00:00Z</time>
      </trkpt>
      <trkpt lat="43.198867" lon="-2.828176">
        <ele>273.8</ele>
        <time>0-00-00T00:00:00Z</time>
      </trkpt>
      <trkpt lat="43.199045" lon="-2.828176">
        <ele>271.3</ele>
        <time>0-00-00T00:00:00Z</time>
      </trkpt>
      <trkpt lat="43.199164" lon="-2.828047">
        <ele>272.3</ele>
        <time>0-00-00T00:00:00Z</time>
      </trkpt>
      <trkpt lat="43.199565" lon="-2.828209">
        <ele>263.3</ele>
        <time>0-00-00T00:00:00Z</time>
      </trkpt>
      <trkpt lat="43.199821" lon="-2.828546">
        <ele>258.1</ele>
        <time>0-00-00T00:00:00Z</time>
      </trkpt>
      <trkpt lat="43.200188" lon="-2.829254">
        <ele>250.7</ele>
        <time>0-00-00T00:00:00Z</time>
      </trkpt>
      <trkpt lat="43.200478" lon="-2.829591">
        <ele>251.7</ele>
        <time>0-00-00T00:00:00Z</time>
      </trkpt>
      <trkpt lat="43.201125" lon="-2.829496">
        <ele>261.3</ele>
        <time>0-00-00T00:00:00Z</time>
      </trkpt>
      <trkpt lat="43.201620" lon="-2.829715">
        <ele>260.9</ele>
        <time>0-00-00T00:00:00Z</time>
      </trkpt>
      <trkpt lat="43.201926" lon="-2.829726">
        <ele>262.0</ele>
        <time>0-00-00T00:00:00Z</time>
      </trkpt>
      <trkpt lat="43.202581" lon="-2.829153">
        <ele>256.0</ele>
        <time>0-00-00T00:00:00Z</time>
      </trkpt>
      <trkpt lat="43.202653" lon="-2.828991">
        <ele>255.8</ele>
        <time>0-00-00T00:00:00Z</time>
      </trkpt>
      <trkpt lat="43.202702" lon="-2.828768">
        <ele>256.7</ele>
        <time>0-00-00T00:00:00Z</time>
      </trkpt>
      <trkpt lat="43.202655" lon="-2.828467">
        <ele>257.9</ele>
        <time>0-00-00T00:00:00Z</time>
      </trkpt>
      <trkpt lat="43.202993" lon="-2.828008">
        <ele>252.5</ele>
        <time>0-00-00T00:00:00Z</time>
      </trkpt>
      <trkpt lat="43.203222" lon="-2.828018">
        <ele>248.5</ele>
        <time>0-00-00T00:00:00Z</time>
      </trkpt>
      <trkpt lat="43.203705" lon="-2.827860">
        <ele>241.6</ele>
        <time>0-00-00T00:00:00Z</time>
      </trkpt>
      <trkpt lat="43.203904" lon="-2.827744">
        <ele>239.0</ele>
        <time>0-00-00T00:00:00Z</time>
      </trkpt>
      <trkpt lat="43.204124" lon="-2.827453">
        <ele>237.0</ele>
        <time>0-00-00T00:00:00Z</time>
      </trkpt>
      <trkpt lat="43.204509" lon="-2.827162">
        <ele>235.0</ele>
        <time>0-00-00T00:00:00Z</time>
      </trkpt>
      <trkpt lat="43.205022" lon="-2.826853">
        <ele>220.3</ele>
        <time>0-00-00T00:00:00Z</time>
      </trkpt>
      <trkpt lat="43.205603" lon="-2.826904">
        <ele>207.1</ele>
        <time>0-00-00T00:00:00Z</time>
      </trkpt>
      <trkpt lat="43.205984" lon="-2.826839">
        <ele>196.0</ele>
        <time>0-00-00T00:00:00Z</time>
      </trkpt>
      <trkpt lat="43.206082" lon="-2.826664">
        <ele>194.3</ele>
        <time>0-00-00T00:00:00Z</time>
      </trkpt>
      <trkpt lat="43.206429" lon="-2.826460">
        <ele>191.2</ele>
        <time>0-00-00T00:00:00Z</time>
      </trkpt>
      <trkpt lat="43.206657" lon="-2.826297">
        <ele>192.0</ele>
        <time>0-00-00T00:00:00Z</time>
      </trkpt>
      <trkpt lat="43.207136" lon="-2.826174">
        <ele>190.7</ele>
        <time>0-00-00T00:00:00Z</time>
      </trkpt>
      <trkpt lat="43.207632" lon="-2.826149">
        <ele>189.8</ele>
        <time>0-00-00T00:00:00Z</time>
      </trkpt>
      <trkpt lat="43.208196" lon="-2.825881">
        <ele>188.3</ele>
        <time>0-00-00T00:00:00Z</time>
      </trkpt>
      <trkpt lat="43.208543" lon="-2.825549">
        <ele>188.6</ele>
        <time>0-00-00T00:00:00Z</time>
      </trkpt>
      <trkpt lat="43.208602" lon="-2.825363">
        <ele>189.3</ele>
        <time>0-00-00T00:00:00Z</time>
      </trkpt>
      <trkpt lat="43.209401" lon="-2.824323">
        <ele>186.9</ele>
        <time>0-00-00T00:00:00Z</time>
      </trkpt>
      <trkpt lat="43.210536" lon="-2.823554">
        <ele>178.2</ele>
        <time>0-00-00T00:00:00Z</time>
      </trkpt>
      <trkpt lat="43.211192" lon="-2.822596">
        <ele>184.4</ele>
        <time>0-00-00T00:00:00Z</time>
      </trkpt>
      <trkpt lat="43.211656" lon="-2.821307">
        <ele>182.6</ele>
        <time>0-00-00T00:00:00Z</time>
      </trkpt>
      <trkpt lat="43.211731" lon="-2.820901">
        <ele>178.4</ele>
        <time>0-00-00T00:00:00Z</time>
      </trkpt>
      <trkpt lat="43.212569" lon="-2.819785">
        <ele>159.0</ele>
        <time>0-00-00T00:00:00Z</time>
      </trkpt>
      <trkpt lat="43.212983" lon="-2.819233">
        <ele>150.6</ele>
        <time>0-00-00T00:00:00Z</time>
      </trkpt>
      <trkpt lat="43.213474" lon="-2.818687">
        <ele>145.3</ele>
        <time>0-00-00T00:00:00Z</time>
      </trkpt>
      <trkpt lat="43.214087" lon="-2.817612">
        <ele>127.9</ele>
        <time>0-00-00T00:00:00Z</time>
      </trkpt>
      <trkpt lat="43.214209" lon="-2.817397">
        <ele>124.8</ele>
        <time>0-00-00T00:00:00Z</time>
      </trkpt>
      <trkpt lat="43.214455" lon="-2.817135">
        <ele>123.4</ele>
        <time>0-00-00T00:00:00Z</time>
      </trkpt>
      <trkpt lat="43.214612" lon="-2.817164">
        <ele>122.9</ele>
        <time>0-00-00T00:00:00Z</time>
      </trkpt>
      <trkpt lat="43.214757" lon="-2.817563">
        <ele>115.8</ele>
        <time>0-00-00T00:00:00Z</time>
      </trkpt>
      <trkpt lat="43.215256" lon="-2.817208">
        <ele>98.9</ele>
        <time>0-00-00T00:00:00Z</time>
      </trkpt>
      <trkpt lat="43.215375" lon="-2.817248">
        <ele>93.8</ele>
        <time>0-00-00T00:00:00Z</time>
      </trkpt>
      <trkpt lat="43.215384" lon="-2.817660">
        <ele>86.8</ele>
        <time>0-00-00T00:00:00Z</time>
      </trkpt>
      <trkpt lat="43.215322" lon="-2.818234">
        <ele>80.1</ele>
        <time>0-00-00T00:00:00Z</time>
      </trkpt>
      <trkpt lat="43.215360" lon="-2.818448">
        <ele>74.3</ele>
        <time>0-00-00T00:00:00Z</time>
      </trkpt>
      <trkpt lat="43.215221" lon="-2.818727">
        <ele>76.5</ele>
        <time>0-00-00T00:00:00Z</time>
      </trkpt>
      <trkpt lat="43.215306" lon="-2.818883">
        <ele>69.8</ele>
        <time>0-00-00T00:00:00Z</time>
      </trkpt>
      <trkpt lat="43.215226" lon="-2.819022">
        <ele>71.7</ele>
        <time>0-00-00T00:00:00Z</time>
      </trkpt>
      <trkpt lat="43.215226" lon="-2.819179">
        <ele>69.2</ele>
        <time>0-00-00T00:00:00Z</time>
      </trkpt>
      <trkpt lat="43.215404" lon="-2.819196">
        <ele>60.7</ele>
        <time>0-00-00T00:00:00Z</time>
      </trkpt>
      <trkpt lat="43.215756" lon="-2.818951">
        <ele>59.5</ele>
        <time>0-00-00T00:00:00Z</time>
      </trkpt>
      <trkpt lat="43.216116" lon="-2.818909">
        <ele>55.6</ele>
        <time>0-00-00T00:00:00Z</time>
      </trkpt>
      <trkpt lat="43.216800" lon="-2.819129">
        <ele>56.6</ele>
        <time>0-00-00T00:00:00Z</time>
      </trkpt>
      <trkpt lat="43.217333" lon="-2.819436">
        <ele>58.2</ele>
        <time>0-00-00T00:00:00Z</time>
      </trkpt>
      <trkpt lat="43.217446" lon="-2.819391">
        <ele>58.0</ele>
        <time>0-00-00T00:00:00Z</time>
      </trkpt>
      <trkpt lat="43.217218" lon="-2.818697">
        <ele>57.2</ele>
        <time>0-00-00T00:00:00Z</time>
      </trkpt>
      <trkpt lat="43.217088" lon="-2.817980">
        <ele>57.0</ele>
        <time>0-00-00T00:00:00Z</time>
      </trkpt>
      <trkpt lat="43.216965" lon="-2.816922">
        <ele>54.7</ele>
        <time>0-00-00T00:00:00Z</time>
      </trkpt>
      <trkpt lat="43.217189" lon="-2.815818">
        <ele>49.7</ele>
        <time>0-00-00T00:00:00Z</time>
      </trkpt>
      <trkpt lat="43.217510" lon="-2.815221">
        <ele>49.4</ele>
        <time>0-00-00T00:00:00Z</time>
      </trkpt>
      <trkpt lat="43.217760" lon="-2.814955">
        <ele>49.4</ele>
        <time>0-00-00T00:00:00Z</time>
      </trkpt>
      <trkpt lat="43.218130" lon="-2.814480">
        <ele>49.7</ele>
        <time>0-00-00T00:00:00Z</time>
      </trkpt>
      <trkpt lat="43.218332" lon="-2.814380">
        <ele>50.4</ele>
        <time>0-00-00T00:00:00Z</time>
      </trkpt>
      <trkpt lat="43.218598" lon="-2.814566">
        <ele>50.7</ele>
        <time>0-00-00T00:00:00Z</time>
      </trkpt>
      <trkpt lat="43.218799" lon="-2.814191">
        <ele>51.5</ele>
        <time>0-00-00T00:00:00Z</time>
      </trkpt>
      <trkpt lat="43.218750" lon="-2.813915">
        <ele>51.8</ele>
        <time>0-00-00T00:00:00Z</time>
      </trkpt>
      <trkpt lat="43.219403" lon="-2.813504">
        <ele>53.3</ele>
        <time>0-00-00T00:00:00Z</time>
      </trkpt>
      <trkpt lat="43.219500" lon="-2.813350">
        <ele>54.3</ele>
        <time>0-00-00T00:00:00Z</time>
      </trkpt>
      <trkpt lat="43.219538" lon="-2.812290">
        <ele>59.1</ele>
        <time>0-00-00T00:00:00Z</time>
      </trkpt>
      <trkpt lat="43.220328" lon="-2.811835">
        <ele>67.1</ele>
        <time>0-00-00T00:00:00Z</time>
      </trkpt>
      <trkpt lat="43.220545" lon="-2.811481">
        <ele>70.7</ele>
        <time>0-00-00T00:00:00Z</time>
      </trkpt>
      <trkpt lat="43.220997" lon="-2.811325">
        <ele>76.7</ele>
        <time>0-00-00T00:00:00Z</time>
      </trkpt>
      <trkpt lat="43.221796" lon="-2.811687">
        <ele>92.1</ele>
        <time>0-00-00T00:00:00Z</time>
      </trkpt>
      <trkpt lat="43.222733" lon="-2.812025">
        <ele>116.9</ele>
        <time>0-00-00T00:00:00Z</time>
      </trkpt>
      <trkpt lat="43.222951" lon="-2.812212">
        <ele>121.6</ele>
        <time>0-00-00T00:00:00Z</time>
      </trkpt>
      <trkpt lat="43.223490" lon="-2.811515">
        <ele>136.2</ele>
        <time>0-00-00T00:00:00Z</time>
      </trkpt>
      <trkpt lat="43.223439" lon="-2.810158">
        <ele>136.2</ele>
        <time>0-00-00T00:00:00Z</time>
      </trkpt>
      <trkpt lat="43.223745" lon="-2.809793">
        <ele>147.8</ele>
        <time>0-00-00T00:00:00Z</time>
      </trkpt>
      <trkpt lat="43.224042" lon="-2.808965">
        <ele>162.7</ele>
        <time>0-00-00T00:00:00Z</time>
      </trkpt>
      <trkpt lat="43.224250" lon="-2.808158">
        <ele>169.8</ele>
        <time>0-00-00T00:00:00Z</time>
      </trkpt>
      <trkpt lat="43.224411" lon="-2.807750">
        <ele>172.4</ele>
        <time>0-00-00T00:00:00Z</time>
      </trkpt>
      <trkpt lat="43.224814" lon="-2.807572">
        <ele>173.7</ele>
        <time>0-00-00T00:00:00Z</time>
      </trkpt>
      <trkpt lat="43.225329" lon="-2.807305">
        <ele>175.1</ele>
        <time>0-00-00T00:00:00Z</time>
      </trkpt>
      <trkpt lat="43.225692" lon="-2.807149">
        <ele>180.5</ele>
        <time>0-00-00T00:00:00Z</time>
      </trkpt>
      <trkpt lat="43.226250" lon="-2.807599">
        <ele>180.2</ele>
        <time>0-00-00T00:00:00Z</time>
      </trkpt>
      <trkpt lat="43.226420" lon="-2.807886">
        <ele>180.1</ele>
        <time>0-00-00T00:00:00Z</time>
      </trkpt>
      <trkpt lat="43.226452" lon="-2.808117">
        <ele>178.0</ele>
        <time>0-00-00T00:00:00Z</time>
      </trkpt>
      <trkpt lat="43.226711" lon="-2.808216">
        <ele>181.9</ele>
        <time>0-00-00T00:00:00Z</time>
      </trkpt>
      <trkpt lat="43.227203" lon="-2.808192">
        <ele>191.4</ele>
        <time>0-00-00T00:00:00Z</time>
      </trkpt>
      <trkpt lat="43.228059" lon="-2.808498">
        <ele>196.5</ele>
        <time>0-00-00T00:00:00Z</time>
      </trkpt>
      <trkpt lat="43.228414" lon="-2.808419">
        <ele>202.9</ele>
        <time>0-00-00T00:00:00Z</time>
      </trkpt>
      <trkpt lat="43.228993" lon="-2.807865">
        <ele>221.2</ele>
        <time>0-00-00T00:00:00Z</time>
      </trkpt>
      <trkpt lat="43.229461" lon="-2.807643">
        <ele>225.1</ele>
        <time>0-00-00T00:00:00Z</time>
      </trkpt>
      <trkpt lat="43.229533" lon="-2.807312">
        <ele>233.3</ele>
        <time>0-00-00T00:00:00Z</time>
      </trkpt>
      <trkpt lat="43.229540" lon="-2.806826">
        <ele>242.7</ele>
        <time>0-00-00T00:00:00Z</time>
      </trkpt>
      <trkpt lat="43.229660" lon="-2.806208">
        <ele>250.6</ele>
        <time>0-00-00T00:00:00Z</time>
      </trkpt>
      <trkpt lat="43.229392" lon="-2.805370">
        <ele>255.0</ele>
        <time>0-00-00T00:00:00Z</time>
      </trkpt>
      <trkpt lat="43.229075" lon="-2.803981">
        <ele>254.5</ele>
        <time>0-00-00T00:00:00Z</time>
      </trkpt>
      <trkpt lat="43.229033" lon="-2.803341">
        <ele>256.3</ele>
        <time>0-00-00T00:00:00Z</time>
      </trkpt>
      <trkpt lat="43.228855" lon="-2.803055">
        <ele>258.5</ele>
        <time>0-00-00T00:00:00Z</time>
      </trkpt>
      <trkpt lat="43.228306" lon="-2.802836">
        <ele>261.9</ele>
        <time>0-00-00T00:00:00Z</time>
      </trkpt>
      <trkpt lat="43.228023" lon="-2.802771">
        <ele>263.7</ele>
        <time>0-00-00T00:00:00Z</time>
      </trkpt>
      <trkpt lat="43.227240" lon="-2.802587">
        <ele>272.1</ele>
        <time>0-00-00T00:00:00Z</time>
      </trkpt>
      <trkpt lat="43.226804" lon="-2.802434">
        <ele>272.3</ele>
        <time>0-00-00T00:00:00Z</time>
      </trkpt>
      <trkpt lat="43.226731" lon="-2.802202">
        <ele>274.0</ele>
        <time>0-00-00T00:00:00Z</time>
      </trkpt>
      <trkpt lat="43.226787" lon="-2.801750">
        <ele>281.1</ele>
        <time>0-00-00T00:00:00Z</time>
      </trkpt>
      <trkpt lat="43.226664" lon="-2.801066">
        <ele>290.2</ele>
        <time>0-00-00T00:00:00Z</time>
      </trkpt>
      <trkpt lat="43.226632" lon="-2.800746">
        <ele>294.2</ele>
        <time>0-00-00T00:00:00Z</time>
      </trkpt>
      <trkpt lat="43.226461" lon="-2.800339">
        <ele>299.7</ele>
        <time>0-00-00T00:00:00Z</time>
      </trkpt>
      <trkpt lat="43.226267" lon="-2.800251">
        <ele>301.1</ele>
        <time>0-00-00T00:00:00Z</time>
      </trkpt>
      <trkpt lat="43.226172" lon="-2.800682">
        <ele>296.6</ele>
        <time>0-00-00T00:00:00Z</time>
      </trkpt>
      <trkpt lat="43.225704" lon="-2.800761">
        <ele>293.6</ele>
        <time>0-00-00T00:00:00Z</time>
      </trkpt>
      <trkpt lat="43.225559" lon="-2.800686">
        <ele>294.3</ele>
        <time>0-00-00T00:00:00Z</time>
      </trkpt>
      <trkpt lat="43.225375" lon="-2.800769">
        <ele>291.5</ele>
        <time>0-00-00T00:00:00Z</time>
      </trkpt>
      <trkpt lat="43.225239" lon="-2.800720">
        <ele>288.9</ele>
        <time>0-00-00T00:00:00Z</time>
      </trkpt>
      <trkpt lat="43.225090" lon="-2.800567">
        <ele>287.3</ele>
        <time>0-00-00T00:00:00Z</time>
      </trkpt>
      <trkpt lat="43.225006" lon="-2.800590">
        <ele>284.9</ele>
        <time>0-00-00T00:00:00Z</time>
      </trkpt>
      <trkpt lat="43.224973" lon="-2.800190">
        <ele>286.2</ele>
        <time>0-00-00T00:00:00Z</time>
      </trkpt>
      <trkpt lat="43.224909" lon="-2.800080">
        <ele>284.8</ele>
        <time>0-00-00T00:00:00Z</time>
      </trkpt>
      <trkpt lat="43.224960" lon="-2.799746">
        <ele>285.9</ele>
        <time>0-00-00T00:00:00Z</time>
      </trkpt>
      <trkpt lat="43.224799" lon="-2.799264">
        <ele>282.3</ele>
        <time>0-00-00T00:00:00Z</time>
      </trkpt>
      <trkpt lat="43.224678" lon="-2.799051">
        <ele>280.0</ele>
        <time>0-00-00T00:00:00Z</time>
      </trkpt>
      <trkpt lat="43.224718" lon="-2.798853">
        <ele>279.9</ele>
        <time>0-00-00T00:00:00Z</time>
      </trkpt>
      <trkpt lat="43.224581" lon="-2.798536">
        <ele>278.2</ele>
        <time>0-00-00T00:00:00Z</time>
      </trkpt>
      <trkpt lat="43.224552" lon="-2.798284">
        <ele>278.1</ele>
        <time>0-00-00T00:00:00Z</time>
      </trkpt>
      <trkpt lat="43.224408" lon="-2.798082">
        <ele>275.9</ele>
        <time>0-00-00T00:00:00Z</time>
      </trkpt>
      <trkpt lat="43.224239" lon="-2.798077">
        <ele>273.2</ele>
        <time>0-00-00T00:00:00Z</time>
      </trkpt>
      <trkpt lat="43.224127" lon="-2.797858">
        <ele>271.5</ele>
        <time>0-00-00T00:00:00Z</time>
      </trkpt>
      <trkpt lat="43.224142" lon="-2.797491">
        <ele>272.9</ele>
        <time>0-00-00T00:00:00Z</time>
      </trkpt>
      <trkpt lat="43.223969" lon="-2.797157">
        <ele>271.2</ele>
        <time>0-00-00T00:00:00Z</time>
      </trkpt>
      <trkpt lat="43.223672" lon="-2.796923">
        <ele>266.3</ele>
        <time>0-00-00T00:00:00Z</time>
      </trkpt>
      <trkpt lat="43.223451" lon="-2.796655">
        <ele>261.3</ele>
        <time>0-00-00T00:00:00Z</time>
      </trkpt>
      <trkpt lat="43.223346" lon="-2.796283">
        <ele>259.7</ele>
        <time>0-00-00T00:00:00Z</time>
      </trkpt>
      <trkpt lat="43.223240" lon="-2.795478">
        <ele>256.0</ele>
        <time>0-00-00T00:00:00Z</time>
      </trkpt>
      <trkpt lat="43.223142" lon="-2.794645">
        <ele>249.3</ele>
        <time>0-00-00T00:00:00Z</time>
      </trkpt>
      <trkpt lat="43.223182" lon="-2.794344">
        <ele>249.9</ele>
        <time>0-00-00T00:00:00Z</time>
      </trkpt>
      <trkpt lat="43.223068" lon="-2.793900">
        <ele>247.6</ele>
        <time>0-00-00T00:00:00Z</time>
      </trkpt>
      <trkpt lat="43.222971" lon="-2.793341">
        <ele>249.9</ele>
        <time>0-00-00T00:00:00Z</time>
      </trkpt>
      <trkpt lat="43.222818" lon="-2.792821">
        <ele>251.4</ele>
        <time>0-00-00T00:00:00Z</time>
      </trkpt>
      <trkpt lat="43.222477" lon="-2.792675">
        <ele>242.6</ele>
        <time>0-00-00T00:00:00Z</time>
      </trkpt>
      <trkpt lat="43.222400" lon="-2.792549">
        <ele>241.6</ele>
        <time>0-00-00T00:00:00Z</time>
      </trkpt>
      <trkpt lat="43.222275" lon="-2.792067">
        <ele>243.2</ele>
        <time>0-00-00T00:00:00Z</time>
      </trkpt>
      <trkpt lat="43.222071" lon="-2.791980">
        <ele>240.6</ele>
        <time>0-00-00T00:00:00Z</time>
      </trkpt>
      <trkpt lat="43.221244" lon="-2.791567">
        <ele>230.1</ele>
        <time>0-00-00T00:00:00Z</time>
      </trkpt>
      <trkpt lat="43.220196" lon="-2.791031">
        <ele>209.7</ele>
        <time>0-00-00T00:00:00Z</time>
      </trkpt>
      <trkpt lat="43.219760" lon="-2.790449">
        <ele>212.2</ele>
        <time>0-00-00T00:00:00Z</time>
      </trkpt>
      <trkpt lat="43.218487" lon="-2.789987">
        <ele>207.5</ele>
        <time>0-00-00T00:00:00Z</time>
      </trkpt>
      <trkpt lat="43.218509" lon="-2.789436">
        <ele>209.1</ele>
        <time>0-00-00T00:00:00Z</time>
      </trkpt>
      <trkpt lat="43.218779" lon="-2.788872">
        <ele>214.5</ele>
        <time>0-00-00T00:00:00Z</time>
      </trkpt>
      <trkpt lat="43.219623" lon="-2.787914">
        <ele>228.3</ele>
        <time>0-00-00T00:00:00Z</time>
      </trkpt>
      <trkpt lat="43.219879" lon="-2.787839">
        <ele>235.8</ele>
        <time>0-00-00T00:00:00Z</time>
      </trkpt>
      <trkpt lat="43.220126" lon="-2.787393">
        <ele>239.1</ele>
        <time>0-00-00T00:00:00Z</time>
      </trkpt>
      <trkpt lat="43.220092" lon="-2.785929">
        <ele>231.6</ele>
        <time>0-00-00T00:00:00Z</time>
      </trkpt>
      <trkpt lat="43.220587" lon="-2.785364">
        <ele>243.2</ele>
        <time>0-00-00T00:00:00Z</time>
      </trkpt>
      <trkpt lat="43.220904" lon="-2.784865">
        <ele>242.0</ele>
        <time>0-00-00T00:00:00Z</time>
      </trkpt>
      <trkpt lat="43.220996" lon="-2.784175">
        <ele>236.9</ele>
        <time>0-00-00T00:00:00Z</time>
      </trkpt>
      <trkpt lat="43.221159" lon="-2.784407">
        <ele>243.9</ele>
        <time>0-00-00T00:00:00Z</time>
      </trkpt>
      <trkpt lat="43.221540" lon="-2.784809">
        <ele>255.7</ele>
        <time>0-00-00T00:00:00Z</time>
      </trkpt>
      <trkpt lat="43.222216" lon="-2.784944">
        <ele>263.6</ele>
        <time>0-00-00T00:00:00Z</time>
      </trkpt>
      <trkpt lat="43.223178" lon="-2.785152">
        <ele>255.1</ele>
        <time>0-00-00T00:00:00Z</time>
      </trkpt>
      <trkpt lat="43.223504" lon="-2.785310">
        <ele>250.5</ele>
        <time>0-00-00T00:00:00Z</time>
      </trkpt>
      <trkpt lat="43.223707" lon="-2.785776">
        <ele>248.8</ele>
        <time>0-00-00T00:00:00Z</time>
      </trkpt>
      <trkpt lat="43.223768" lon="-2.785224">
        <ele>244.8</ele>
        <time>0-00-00T00:00:00Z</time>
      </trkpt>
      <trkpt lat="43.223651" lon="-2.784822">
        <ele>243.8</ele>
        <time>0-00-00T00:00:00Z</time>
      </trkpt>
      <trkpt lat="43.223790" lon="-2.784588">
        <ele>239.0</ele>
        <time>0-00-00T00:00:00Z</time>
      </trkpt>
      <trkpt lat="43.224100" lon="-2.784629">
        <ele>231.0</ele>
        <time>0-00-00T00:00:00Z</time>
      </trkpt>
      <trkpt lat="43.224279" lon="-2.784883">
        <ele>226.9</ele>
        <time>0-00-00T00:00:00Z</time>
      </trkpt>
      <trkpt lat="43.224536" lon="-2.785115">
        <ele>219.5</ele>
        <time>0-00-00T00:00:00Z</time>
      </trkpt>
      <trkpt lat="43.224978" lon="-2.785124">
        <ele>207.6</ele>
        <time>0-00-00T00:00:00Z</time>
      </trkpt>
      <trkpt lat="43.225381" lon="-2.784698">
        <ele>198.5</ele>
        <time>0-00-00T00:00:00Z</time>
      </trkpt>
      <trkpt lat="43.225853" lon="-2.784208">
        <ele>190.7</ele>
        <time>0-00-00T00:00:00Z</time>
      </trkpt>
      <trkpt lat="43.226318" lon="-2.783867">
        <ele>180.8</ele>
        <time>0-00-00T00:00:00Z</time>
      </trkpt>
      <trkpt lat="43.226852" lon="-2.783430">
        <ele>167.9</ele>
        <time>0-00-00T00:00:00Z</time>
      </trkpt>
      <trkpt lat="43.227489" lon="-2.783639">
        <ele>161.2</ele>
        <time>0-00-00T00:00:00Z</time>
      </trkpt>
      <trkpt lat="43.228117" lon="-2.783658">
        <ele>149.6</ele>
        <time>0-00-00T00:00:00Z</time>
      </trkpt>
      <trkpt lat="43.228428" lon="-2.783752">
        <ele>139.8</ele>
        <time>0-00-00T00:00:00Z</time>
      </trkpt>
      <trkpt lat="43.228652" lon="-2.783550">
        <ele>132.3</ele>
        <time>0-00-00T00:00:00Z</time>
      </trkpt>
      <trkpt lat="43.228580" lon="-2.782669">
        <ele>131.0</ele>
        <time>0-00-00T00:00:00Z</time>
      </trkpt>
      <trkpt lat="43.228579" lon="-2.782054">
        <ele>123.8</ele>
        <time>0-00-00T00:00:00Z</time>
      </trkpt>
      <trkpt lat="43.228415" lon="-2.781779">
        <ele>123.5</ele>
        <time>0-00-00T00:00:00Z</time>
      </trkpt>
      <trkpt lat="43.228547" lon="-2.781386">
        <ele>117.1</ele>
        <time>0-00-00T00:00:00Z</time>
      </trkpt>
      <trkpt lat="43.228561" lon="-2.780802">
        <ele>108.7</ele>
        <time>0-00-00T00:00:00Z</time>
      </trkpt>
      <trkpt lat="43.228848" lon="-2.780780">
        <ele>105.0</ele>
        <time>0-00-00T00:00:00Z</time>
      </trkpt>
      <trkpt lat="43.229151" lon="-2.780874">
        <ele>102.6</ele>
        <time>0-00-00T00:00:00Z</time>
      </trkpt>
      <trkpt lat="43.229376" lon="-2.781223">
        <ele>105.1</ele>
        <time>0-00-00T00:00:00Z</time>
      </trkpt>
      <trkpt lat="43.229687" lon="-2.781243">
        <ele>100.3</ele>
        <time>0-00-00T00:00:00Z</time>
      </trkpt>
      <trkpt lat="43.230462" lon="-2.781102">
        <ele>81.0</ele>
        <time>0-00-00T00:00:00Z</time>
      </trkpt>
      <trkpt lat="43.230826" lon="-2.780856">
        <ele>80.1</ele>
        <time>0-00-00T00:00:00Z</time>
      </trkpt>
      <trkpt lat="43.231178" lon="-2.778277">
        <ele>77.5</ele>
        <time>0-00-00T00:00:00Z</time>
      </trkpt>
      <trkpt lat="43.231480" lon="-2.778212">
        <ele>79.8</ele>
        <time>0-00-00T00:00:00Z</time>
      </trkpt>
      <trkpt lat="43.231843" lon="-2.777563">
        <ele>82.8</ele>
        <time>0-00-00T00:00:00Z</time>
      </trkpt>
      <trkpt lat="43.232270" lon="-2.777572">
        <ele>88.4</ele>
        <time>0-00-00T00:00:00Z</time>
      </trkpt>
      <trkpt lat="43.232394" lon="-2.777635">
        <ele>91.4</ele>
        <time>0-00-00T00:00:00Z</time>
      </trkpt>
      <trkpt lat="43.232279" lon="-2.778209">
        <ele>91.7</ele>
        <time>0-00-00T00:00:00Z</time>
      </trkpt>
      <trkpt lat="43.232234" lon="-2.778983">
        <ele>94.4</ele>
        <time>0-00-00T00:00:00Z</time>
      </trkpt>
      <trkpt lat="43.232166" lon="-2.779885">
        <ele>95.9</ele>
        <time>0-00-00T00:00:00Z</time>
      </trkpt>
      <trkpt lat="43.232368" lon="-2.780023">
        <ele>100.3</ele>
        <time>0-00-00T00:00:00Z</time>
      </trkpt>
      <trkpt lat="43.232678" lon="-2.779820">
        <ele>107.4</ele>
        <time>0-00-00T00:00:00Z</time>
      </trkpt>
      <trkpt lat="43.232934" lon="-2.779723">
        <ele>113.3</ele>
        <time>0-00-00T00:00:00Z</time>
      </trkpt>
      <trkpt lat="43.233415" lon="-2.779848">
        <ele>125.9</ele>
        <time>0-00-00T00:00:00Z</time>
      </trkpt>
      <trkpt lat="43.233882" lon="-2.780186">
        <ele>136.0</ele>
        <time>0-00-00T00:00:00Z</time>
      </trkpt>
      <trkpt lat="43.234083" lon="-2.780249">
        <ele>140.4</ele>
        <time>0-00-00T00:00:00Z</time>
      </trkpt>
      <trkpt lat="43.234620" lon="-2.780671">
        <ele>152.7</ele>
        <time>0-00-00T00:00:00Z</time>
      </trkpt>
      <trkpt lat="43.234922" lon="-2.780723">
        <ele>158.4</ele>
        <time>0-00-00T00:00:00Z</time>
      </trkpt>
      <trkpt lat="43.235381" lon="-2.781209">
        <ele>170.0</ele>
        <time>0-00-00T00:00:00Z</time>
      </trkpt>
      <trkpt lat="43.236483" lon="-2.781343">
        <ele>196.3</ele>
        <time>0-00-00T00:00:00Z</time>
      </trkpt>
      <trkpt lat="43.236755" lon="-2.781543">
        <ele>200.1</ele>
        <time>0-00-00T00:00:00Z</time>
      </trkpt>
      <trkpt lat="43.236865" lon="-2.782042">
        <ele>205.7</ele>
        <time>0-00-00T00:00:00Z</time>
      </trkpt>
      <trkpt lat="43.237176" lon="-2.782497">
        <ele>206.9</ele>
        <time>0-00-00T00:00:00Z</time>
      </trkpt>
      <trkpt lat="43.237774" lon="-2.782621">
        <ele>204.6</ele>
        <time>0-00-00T00:00:00Z</time>
      </trkpt>
      <trkpt lat="43.238969" lon="-2.783009">
        <ele>208.1</ele>
        <time>0-00-00T00:00:00Z</time>
      </trkpt>
      <trkpt lat="43.239714" lon="-2.783102">
        <ele>218.6</ele>
        <time>0-00-00T00:00:00Z</time>
      </trkpt>
      <trkpt lat="43.240265" lon="-2.783078">
        <ele>227.1</ele>
        <time>0-00-00T00:00:00Z</time>
      </trkpt>
      <trkpt lat="43.240840" lon="-2.783320">
        <ele>232.1</ele>
        <time>0-00-00T00:00:00Z</time>
      </trkpt>
      <trkpt lat="43.241531" lon="-2.783720">
        <ele>241.9</ele>
        <time>0-00-00T00:00:00Z</time>
      </trkpt>
      <trkpt lat="43.242455" lon="-2.783950">
        <ele>261.8</ele>
        <time>0-00-00T00:00:00Z</time>
      </trkpt>
      <trkpt lat="43.242936" lon="-2.784203">
        <ele>268.5</ele>
        <time>0-00-00T00:00:00Z</time>
      </trkpt>
      <trkpt lat="43.243201" lon="-2.784786">
        <ele>271.2</ele>
        <time>0-00-00T00:00:00Z</time>
      </trkpt>
      <trkpt lat="43.243358" lon="-2.785379">
        <ele>274.3</ele>
        <time>0-00-00T00:00:00Z</time>
      </trkpt>
      <trkpt lat="43.243499" lon="-2.785856">
        <ele>274.4</ele>
        <time>0-00-00T00:00:00Z</time>
      </trkpt>
      <trkpt lat="43.243717" lon="-2.786503">
        <ele>271.4</ele>
        <time>0-00-00T00:00:00Z</time>
      </trkpt>
      <trkpt lat="43.243989" lon="-2.786693">
        <ele>270.6</ele>
        <time>0-00-00T00:00:00Z</time>
      </trkpt>
      <trkpt lat="43.243956" lon="-2.785823">
        <ele>278.7</ele>
        <time>0-00-00T00:00:00Z</time>
      </trkpt>
      <trkpt lat="43.244056" lon="-2.785270">
        <ele>283.4</ele>
        <time>0-00-00T00:00:00Z</time>
      </trkpt>
      <trkpt lat="43.244118" lon="-2.785132">
        <ele>285.1</ele>
        <time>0-00-00T00:00:00Z</time>
      </trkpt>
      <trkpt lat="43.244031" lon="-2.784421">
        <ele>290.2</ele>
        <time>0-00-00T00:00:00Z</time>
      </trkpt>
      <trkpt lat="43.244247" lon="-2.783922">
        <ele>298.4</ele>
        <time>0-00-00T00:00:00Z</time>
      </trkpt>
      <trkpt lat="43.244456" lon="-2.783560">
        <ele>305.8</ele>
        <time>0-00-00T00:00:00Z</time>
      </trkpt>
      <trkpt lat="43.244470" lon="-2.782998">
        <ele>313.1</ele>
        <time>0-00-00T00:00:00Z</time>
      </trkpt>
      <trkpt lat="43.244469" lon="-2.782647">
        <ele>315.3</ele>
        <time>0-00-00T00:00:00Z</time>
      </trkpt>
      <trkpt lat="43.244593" lon="-2.782466">
        <ele>316.6</ele>
        <time>0-00-00T00:00:00Z</time>
      </trkpt>
      <trkpt lat="43.244596" lon="-2.782535">
        <ele>316.3</ele>
        <time>0-00-00T00:00:00Z</time>
      </trkpt>
      <trkpt lat="43.244535" lon="-2.782654">
        <ele>315.7</ele>
        <time>0-00-00T00:00:00Z</time>
      </trkpt>
      <trkpt lat="43.244498" lon="-2.782835">
        <ele>314.7</ele>
        <time>0-00-00T00:00:00Z</time>
      </trkpt>
      <trkpt lat="43.244506" lon="-2.783326">
        <ele>309.3</ele>
        <time>0-00-00T00:00:00Z</time>
      </trkpt>
      <trkpt lat="43.244497" lon="-2.783564">
        <ele>306.2</ele>
        <time>0-00-00T00:00:00Z</time>
      </trkpt>
      <trkpt lat="43.244243" lon="-2.784078">
        <ele>296.4</ele>
        <time>0-00-00T00:00:00Z</time>
      </trkpt>
      <trkpt lat="43.244135" lon="-2.784400">
        <ele>291.4</ele>
        <time>0-00-00T00:00:00Z</time>
      </trkpt>
      <trkpt lat="43.244114" lon="-2.784842">
        <ele>287.2</ele>
        <time>0-00-00T00:00:00Z</time>
      </trkpt>
      <trkpt lat="43.244070" lon="-2.785421">
        <ele>282.4</ele>
        <time>0-00-00T00:00:00Z</time>
      </trkpt>
      <trkpt lat="43.243985" lon="-2.785887">
        <ele>278.5</ele>
        <time>0-00-00T00:00:00Z</time>
      </trkpt>
      <trkpt lat="43.244021" lon="-2.786682">
        <ele>270.9</ele>
        <time>0-00-00T00:00:00Z</time>
      </trkpt>
      <trkpt lat="43.244053" lon="-2.786839">
        <ele>269.2</ele>
        <time>0-00-00T00:00:00Z</time>
      </trkpt>
      <trkpt lat="43.244220" lon="-2.787088">
        <ele>267.3</ele>
        <time>0-00-00T00:00:00Z</time>
      </trkpt>
      <trkpt lat="43.244817" lon="-2.787737">
        <ele>258.1</ele>
        <time>0-00-00T00:00:00Z</time>
      </trkpt>
      <trkpt lat="43.245110" lon="-2.787983">
        <ele>256.1</ele>
        <time>0-00-00T00:00:00Z</time>
      </trkpt>
      <trkpt lat="43.245540" lon="-2.788794">
        <ele>245.8</ele>
        <time>0-00-00T00:00:00Z</time>
      </trkpt>
      <trkpt lat="43.245653" lon="-2.789146">
        <ele>244.2</ele>
        <time>0-00-00T00:00:00Z</time>
      </trkpt>
      <trkpt lat="43.245674" lon="-2.789632">
        <ele>240.8</ele>
        <time>0-00-00T00:00:00Z</time>
      </trkpt>
      <trkpt lat="43.245972" lon="-2.790437">
        <ele>241.1</ele>
        <time>0-00-00T00:00:00Z</time>
      </trkpt>
      <trkpt lat="43.246130" lon="-2.791429">
        <ele>230.1</ele>
        <time>0-00-00T00:00:00Z</time>
      </trkpt>
      <trkpt lat="43.246357" lon="-2.792754">
        <ele>204.0</ele>
        <time>0-00-00T00:00:00Z</time>
      </trkpt>
      <trkpt lat="43.246558" lon="-2.793226">
        <ele>202.0</ele>
        <time>0-00-00T00:00:00Z</time>
      </trkpt>
      <trkpt lat="43.246807" lon="-2.793572">
        <ele>204.0</ele>
        <time>0-00-00T00:00:00Z</time>
      </trkpt>
      <trkpt lat="43.247061" lon="-2.793917">
        <ele>205.9</ele>
        <time>0-00-00T00:00:00Z</time>
      </trkpt>
      <trkpt lat="43.247139" lon="-2.794104">
        <ele>205.2</ele>
        <time>0-00-00T00:00:00Z</time>
      </trkpt>
      <trkpt lat="43.246993" lon="-2.794164">
        <ele>202.1</ele>
        <time>0-00-00T00:00:00Z</time>
      </trkpt>
      <trkpt lat="43.247057" lon="-2.794557">
        <ele>199.7</ele>
        <time>0-00-00T00:00:00Z</time>
      </trkpt>
      <trkpt lat="43.247073" lon="-2.794830">
        <ele>198.6</ele>
        <time>0-00-00T00:00:00Z</time>
      </trkpt>
      <trkpt lat="43.246849" lon="-2.794904">
        <ele>193.3</ele>
        <time>0-00-00T00:00:00Z</time>
      </trkpt>
      <trkpt lat="43.246615" lon="-2.795132">
        <ele>186.7</ele>
        <time>0-00-00T00:00:00Z</time>
      </trkpt>
      <trkpt lat="43.246587" lon="-2.795571">
        <ele>182.2</ele>
        <time>0-00-00T00:00:00Z</time>
      </trkpt>
      <trkpt lat="43.246578" lon="-2.795905">
        <ele>177.7</ele>
        <time>0-00-00T00:00:00Z</time>
      </trkpt>
      <trkpt lat="43.246603" lon="-2.796357">
        <ele>172.4</ele>
        <time>0-00-00T00:00:00Z</time>
      </trkpt>
      <trkpt lat="43.246633" lon="-2.796584">
        <ele>169.4</ele>
        <time>0-00-00T00:00:00Z</time>
      </trkpt>
      <trkpt lat="43.246546" lon="-2.796777">
        <ele>163.2</ele>
        <time>0-00-00T00:00:00Z</time>
      </trkpt>
      <trkpt lat="43.246483" lon="-2.796924">
        <ele>158.7</ele>
        <time>0-00-00T00:00:00Z</time>
      </trkpt>
      <trkpt lat="43.246401" lon="-2.797231">
        <ele>152.3</ele>
        <time>0-00-00T00:00:00Z</time>
      </trkpt>
      <trkpt lat="43.246372" lon="-2.797824">
        <ele>146.6</ele>
        <time>0-00-00T00:00:00Z</time>
      </trkpt>
      <trkpt lat="43.246261" lon="-2.798211">
        <ele>141.1</ele>
        <time>0-00-00T00:00:00Z</time>
      </trkpt>
      <trkpt lat="43.246213" lon="-2.798511">
        <ele>138.1</ele>
        <time>0-00-00T00:00:00Z</time>
      </trkpt>
      <trkpt lat="43.246287" lon="-2.798737">
        <ele>137.8</ele>
        <time>0-00-00T00:00:00Z</time>
      </trkpt>
      <trkpt lat="43.246341" lon="-2.798870">
        <ele>136.7</ele>
        <time>0-00-00T00:00:00Z</time>
      </trkpt>
      <trkpt lat="43.246273" lon="-2.799004">
        <ele>133.4</ele>
        <time>0-00-00T00:00:00Z</time>
      </trkpt>
      <trkpt lat="43.246097" lon="-2.798918">
        <ele>132.0</ele>
        <time>0-00-00T00:00:00Z</time>
      </trkpt>
      <trkpt lat="43.246063" lon="-2.798751">
        <ele>134.1</ele>
        <time>0-00-00T00:00:00Z</time>
      </trkpt>
      <trkpt lat="43.245955" lon="-2.798498">
        <ele>134.0</ele>
        <time>0-00-00T00:00:00Z</time>
      </trkpt>
      <trkpt lat="43.245848" lon="-2.798479">
        <ele>132.4</ele>
        <time>0-00-00T00:00:00Z</time>
      </trkpt>
      <trkpt lat="43.245804" lon="-2.798666">
        <ele>130.5</ele>
        <time>0-00-00T00:00:00Z</time>
      </trkpt>
      <trkpt lat="43.245835" lon="-2.799205">
        <ele>123.2</ele>
        <time>0-00-00T00:00:00Z</time>
      </trkpt>
      <trkpt lat="43.245908" lon="-2.799398">
        <ele>121.2</ele>
        <time>0-00-00T00:00:00Z</time>
      </trkpt>
      <trkpt lat="43.246069" lon="-2.799657">
        <ele>119.3</ele>
        <time>0-00-00T00:00:00Z</time>
      </trkpt>
      <trkpt lat="43.246187" lon="-2.799850">
        <ele>116.7</ele>
        <time>0-00-00T00:00:00Z</time>
      </trkpt>
      <trkpt lat="43.246256" lon="-2.800263">
        <ele>107.8</ele>
        <time>0-00-00T00:00:00Z</time>
      </trkpt>
      <trkpt lat="43.246232" lon="-2.800723">
        <ele>99.1</ele>
        <time>0-00-00T00:00:00Z</time>
      </trkpt>
      <trkpt lat="43.246077" lon="-2.800990">
        <ele>94.1</ele>
        <time>0-00-00T00:00:00Z</time>
      </trkpt>
      <trkpt lat="43.245995" lon="-2.801376">
        <ele>88.8</ele>
        <time>0-00-00T00:00:00Z</time>
      </trkpt>
      <trkpt lat="43.245933" lon="-2.801863">
        <ele>84.4</ele>
        <time>0-00-00T00:00:00Z</time>
      </trkpt>
      <trkpt lat="43.245938" lon="-2.802176">
        <ele>81.8</ele>
        <time>0-00-00T00:00:00Z</time>
      </trkpt>
      <trkpt lat="43.245866" lon="-2.802516">
        <ele>77.7</ele>
        <time>0-00-00T00:00:00Z</time>
      </trkpt>
      <trkpt lat="43.245764" lon="-2.802823">
        <ele>73.5</ele>
        <time>0-00-00T00:00:00Z</time>
      </trkpt>
      <trkpt lat="43.245774" lon="-2.803103">
        <ele>70.9</ele>
        <time>0-00-00T00:00:00Z</time>
      </trkpt>
      <trkpt lat="43.245941" lon="-2.803462">
        <ele>68.9</ele>
        <time>0-00-00T00:00:00Z</time>
      </trkpt>
      <trkpt lat="43.246116" lon="-2.803714">
        <ele>67.5</ele>
        <time>0-00-00T00:00:00Z</time>
      </trkpt>
      <trkpt lat="43.246370" lon="-2.803727">
        <ele>67.9</ele>
        <time>0-00-00T00:00:00Z</time>
      </trkpt>
      <trkpt lat="43.246408" lon="-2.803467">
        <ele>71.2</ele>
        <time>0-00-00T00:00:00Z</time>
      </trkpt>
      <trkpt lat="43.246617" lon="-2.803299">
        <ele>72.6</ele>
        <time>0-00-00T00:00:00Z</time>
      </trkpt>
      <trkpt lat="43.246696" lon="-2.803605">
        <ele>68.3</ele>
        <time>0-00-00T00:00:00Z</time>
      </trkpt>
      <trkpt lat="43.246809" lon="-2.803951">
        <ele>65.3</ele>
        <time>0-00-00T00:00:00Z</time>
      </trkpt>
      <trkpt lat="43.246945" lon="-2.804191">
        <ele>64.2</ele>
        <time>0-00-00T00:00:00Z</time>
      </trkpt>
      <trkpt lat="43.246946" lon="-2.804377">
        <ele>63.6</ele>
        <time>0-00-00T00:00:00Z</time>
      </trkpt>
      <trkpt lat="43.246717" lon="-2.804511">
        <ele>63.3</ele>
        <time>0-00-00T00:00:00Z</time>
      </trkpt>
      <trkpt lat="43.246713" lon="-2.804758">
        <ele>64.6</ele>
        <time>0-00-00T00:00:00Z</time>
      </trkpt>
      <trkpt lat="43.246767" lon="-2.805091">
        <ele>67.4</ele>
        <time>0-00-00T00:00:00Z</time>
      </trkpt>
      <trkpt lat="43.246655" lon="-2.805258">
        <ele>69.5</ele>
        <time>0-00-00T00:00:00Z</time>
      </trkpt>
      <trkpt lat="43.246436" lon="-2.805305">
        <ele>71.4</ele>
        <time>0-00-00T00:00:00Z</time>
      </trkpt>
      <trkpt lat="43.246164" lon="-2.805353">
        <ele>73.8</ele>
        <time>0-00-00T00:00:00Z</time>
      </trkpt>
      <trkpt lat="43.245881" lon="-2.805361">
        <ele>76.1</ele>
        <time>0-00-00T00:00:00Z</time>
      </trkpt>
      <trkpt lat="43.245691" lon="-2.805408">
        <ele>78.5</ele>
        <time>0-00-00T00:00:00Z</time>
      </trkpt>
      <trkpt lat="43.245867" lon="-2.805680">
        <ele>82.7</ele>
        <time>0-00-00T00:00:00Z</time>
      </trkpt>
      <trkpt lat="43.246043" lon="-2.805960">
        <ele>86.3</ele>
        <time>0-00-00T00:00:00Z</time>
      </trkpt>
      <trkpt lat="43.246409" lon="-2.806405">
        <ele>86.4</ele>
        <time>0-00-00T00:00:00Z</time>
      </trkpt>
      <trkpt lat="43.246644" lon="-2.806850">
        <ele>83.9</ele>
        <time>0-00-00T00:00:00Z</time>
      </trkpt>
      <trkpt lat="43.246839" lon="-2.807236">
        <ele>81.2</ele>
        <time>0-00-00T00:00:00Z</time>
      </trkpt>
      <trkpt lat="43.246889" lon="-2.807769">
        <ele>82.6</ele>
        <time>0-00-00T00:00:00Z</time>
      </trkpt>
      <trkpt lat="43.247089" lon="-2.807954">
        <ele>78.5</ele>
        <time>0-00-00T00:00:00Z</time>
      </trkpt>
      <trkpt lat="43.247323" lon="-2.808273">
        <ele>82.6</ele>
        <time>0-00-00T00:00:00Z</time>
      </trkpt>
      <trkpt lat="43.247436" lon="-2.808526">
        <ele>86.2</ele>
        <time>0-00-00T00:00:00Z</time>
      </trkpt>
      <trkpt lat="43.247690" lon="-2.808945">
        <ele>92.8</ele>
        <time>0-00-00T00:00:00Z</time>
      </trkpt>
      <trkpt lat="43.247803" lon="-2.809637">
        <ele>102.0</ele>
        <time>0-00-00T00:00:00Z</time>
      </trkpt>
      <trkpt lat="43.247907" lon="-2.810303">
        <ele>104.6</ele>
        <time>0-00-00T00:00:00Z</time>
      </trkpt>
      <trkpt lat="43.247904" lon="-2.811076">
        <ele>107.5</ele>
        <time>0-00-00T00:00:00Z</time>
      </trkpt>
      <trkpt lat="43.247842" lon="-2.811909">
        <ele>113.9</ele>
        <time>0-00-00T00:00:00Z</time>
      </trkpt>
      <trkpt lat="43.247833" lon="-2.812502">
        <ele>120.8</ele>
        <time>0-00-00T00:00:00Z</time>
      </trkpt>
      <trkpt lat="43.247966" lon="-2.813068">
        <ele>127.5</ele>
        <time>0-00-00T00:00:00Z</time>
      </trkpt>
      <trkpt lat="43.248030" lon="-2.813654">
        <ele>137.0</ele>
        <time>0-00-00T00:00:00Z</time>
      </trkpt>
      <trkpt lat="43.248157" lon="-2.813886">
        <ele>139.7</ele>
        <time>0-00-00T00:00:00Z</time>
      </trkpt>
      <trkpt lat="43.248601" lon="-2.814091">
        <ele>135.3</ele>
        <time>0-00-00T00:00:00Z</time>
      </trkpt>
      <trkpt lat="43.249025" lon="-2.814570">
        <ele>139.2</ele>
        <time>0-00-00T00:00:00Z</time>
      </trkpt>
      <trkpt lat="43.249788" lon="-2.815913">
        <ele>155.2</ele>
        <time>0-00-00T00:00:00Z</time>
      </trkpt>
      <trkpt lat="43.249959" lon="-2.816359">
        <ele>160.5</ele>
        <time>0-00-00T00:00:00Z</time>
      </trkpt>
      <trkpt lat="43.250336" lon="-2.817277">
        <ele>173.7</ele>
        <time>0-00-00T00:00:00Z</time>
      </trkpt>
      <trkpt lat="43.250546" lon="-2.817895">
        <ele>183.9</ele>
        <time>0-00-00T00:00:00Z</time>
      </trkpt>
      <trkpt lat="43.250723" lon="-2.818548">
        <ele>193.9</ele>
        <time>0-00-00T00:00:00Z</time>
      </trkpt>
      <trkpt lat="43.250694" lon="-2.818661">
        <ele>195.6</ele>
        <time>0-00-00T00:00:00Z</time>
      </trkpt>
      <trkpt lat="43.250358" lon="-2.818656">
        <ele>196.1</ele>
        <time>0-00-00T00:00:00Z</time>
      </trkpt>
      <trkpt lat="43.249875" lon="-2.818244">
        <ele>193.5</ele>
        <time>0-00-00T00:00:00Z</time>
      </trkpt>
      <trkpt lat="43.249558" lon="-2.818125">
        <ele>194.0</ele>
        <time>0-00-00T00:00:00Z</time>
      </trkpt>
      <trkpt lat="43.249339" lon="-2.818326">
        <ele>199.7</ele>
        <time>0-00-00T00:00:00Z</time>
      </trkpt>
      <trkpt lat="43.249120" lon="-2.818413">
        <ele>203.4</ele>
        <time>0-00-00T00:00:00Z</time>
      </trkpt>
      <trkpt lat="43.248858" lon="-2.818574">
        <ele>208.8</ele>
        <time>0-00-00T00:00:00Z</time>
      </trkpt>
      <trkpt lat="43.248658" lon="-2.818675">
        <ele>213.6</ele>
        <time>0-00-00T00:00:00Z</time>
      </trkpt>
      <trkpt lat="43.248493" lon="-2.818655">
        <ele>216.7</ele>
        <time>0-00-00T00:00:00Z</time>
      </trkpt>
      <trkpt lat="43.248464" lon="-2.818842">
        <ele>220.7</ele>
        <time>0-00-00T00:00:00Z</time>
      </trkpt>
      <trkpt lat="43.248537" lon="-2.819062">
        <ele>222.7</ele>
        <time>0-00-00T00:00:00Z</time>
      </trkpt>
      <trkpt lat="43.248683" lon="-2.819101">
        <ele>220.0</ele>
        <time>0-00-00T00:00:00Z</time>
      </trkpt>
      <trkpt lat="43.248873" lon="-2.819154">
        <ele>218.0</ele>
        <time>0-00-00T00:00:00Z</time>
      </trkpt>
      <trkpt lat="43.248976" lon="-2.819547">
        <ele>222.7</ele>
        <time>0-00-00T00:00:00Z</time>
      </trkpt>
      <trkpt lat="43.248957" lon="-2.819833">
        <ele>227.3</ele>
        <time>0-00-00T00:00:00Z</time>
      </trkpt>
      <trkpt lat="43.249040" lon="-2.820019">
        <ele>229.1</ele>
        <time>0-00-00T00:00:00Z</time>
      </trkpt>
      <trkpt lat="43.249279" lon="-2.820105">
        <ele>227.4</ele>
        <time>0-00-00T00:00:00Z</time>
      </trkpt>
      <trkpt lat="43.249401" lon="-2.820198">
        <ele>227.2</ele>
        <time>0-00-00T00:00:00Z</time>
      </trkpt>
      <trkpt lat="43.249450" lon="-2.820504">
        <ele>231.0</ele>
        <time>0-00-00T00:00:00Z</time>
      </trkpt>
      <trkpt lat="43.249202" lon="-2.820505">
        <ele>234.3</ele>
        <time>0-00-00T00:00:00Z</time>
      </trkpt>
      <trkpt lat="43.248910" lon="-2.820513">
        <ele>238.2</ele>
        <time>0-00-00T00:00:00Z</time>
      </trkpt>
      <trkpt lat="43.248681" lon="-2.820627">
        <ele>243.4</ele>
        <time>0-00-00T00:00:00Z</time>
      </trkpt>
      <trkpt lat="43.248521" lon="-2.820641">
        <ele>247.4</ele>
        <time>0-00-00T00:00:00Z</time>
      </trkpt>
      <trkpt lat="43.248345" lon="-2.820382">
        <ele>248.2</ele>
        <time>0-00-00T00:00:00Z</time>
      </trkpt>
      <trkpt lat="43.248072" lon="-2.820283">
        <ele>253.3</ele>
        <time>0-00-00T00:00:00Z</time>
      </trkpt>
      <trkpt lat="43.247935" lon="-2.819997">
        <ele>252.5</ele>
        <time>0-00-00T00:00:00Z</time>
      </trkpt>
      <trkpt lat="43.247637" lon="-2.819744">
        <ele>254.4</ele>
        <time>0-00-00T00:00:00Z</time>
      </trkpt>
      <trkpt lat="43.247126" lon="-2.819493">
        <ele>258.3</ele>
        <time>0-00-00T00:00:00Z</time>
      </trkpt>
      <trkpt lat="43.246697" lon="-2.819488">
        <ele>269.9</ele>
        <time>0-00-00T00:00:00Z</time>
      </trkpt>
      <trkpt lat="43.246346" lon="-2.819276">
        <ele>274.3</ele>
        <time>0-00-00T00:00:00Z</time>
      </trkpt>
      <trkpt lat="43.245717" lon="-2.819038">
        <ele>275.7</ele>
        <time>0-00-00T00:00:00Z</time>
      </trkpt>
      <trkpt lat="43.245274" lon="-2.818827">
        <ele>275.4</ele>
        <time>0-00-00T00:00:00Z</time>
      </trkpt>
      <trkpt lat="43.244913" lon="-2.818735">
        <ele>277.7</ele>
        <time>0-00-00T00:00:00Z</time>
      </trkpt>
      <trkpt lat="43.244616" lon="-2.818696">
        <ele>280.6</ele>
        <time>0-00-00T00:00:00Z</time>
      </trkpt>
      <trkpt lat="43.244167" lon="-2.818437">
        <ele>273.6</ele>
        <time>0-00-00T00:00:00Z</time>
      </trkpt>
      <trkpt lat="43.244056" lon="-2.818444">
        <ele>273.0</ele>
        <time>0-00-00T00:00:00Z</time>
      </trkpt>
      <trkpt lat="43.244500" lon="-2.819149">
        <ele>288.7</ele>
        <time>0-00-00T00:00:00Z</time>
      </trkpt>
      <trkpt lat="43.244798" lon="-2.819661">
        <ele>297.7</ele>
        <time>0-00-00T00:00:00Z</time>
      </trkpt>
      <trkpt lat="43.245529" lon="-2.819998">
        <ele>299.0</ele>
        <time>0-00-00T00:00:00Z</time>
      </trkpt>
      <trkpt lat="43.245963" lon="-2.820416">
        <ele>303.7</ele>
        <time>0-00-00T00:00:00Z</time>
      </trkpt>
      <trkpt lat="43.246417" lon="-2.820988">
        <ele>304.8</ele>
        <time>0-00-00T00:00:00Z</time>
      </trkpt>
      <trkpt lat="43.246705" lon="-2.821420">
        <ele>305.2</ele>
        <time>0-00-00T00:00:00Z</time>
      </trkpt>
      <trkpt lat="43.247019" lon="-2.822178">
        <ele>309.9</ele>
        <time>0-00-00T00:00:00Z</time>
      </trkpt>
      <trkpt lat="43.247117" lon="-2.822664">
        <ele>315.9</ele>
        <time>0-00-00T00:00:00Z</time>
      </trkpt>
      <trkpt lat="43.247181" lon="-2.823004">
        <ele>320.8</ele>
        <time>0-00-00T00:00:00Z</time>
      </trkpt>
      <trkpt lat="43.247522" lon="-2.823043">
        <ele>314.3</ele>
        <time>0-00-00T00:00:00Z</time>
      </trkpt>
      <trkpt lat="43.247995" lon="-2.823521">
        <ele>317.5</ele>
        <time>0-00-00T00:00:00Z</time>
      </trkpt>
      <trkpt lat="43.248229" lon="-2.823600">
        <ele>313.8</ele>
        <time>0-00-00T00:00:00Z</time>
      </trkpt>
      <trkpt lat="43.248614" lon="-2.823652">
        <ele>305.3</ele>
        <time>0-00-00T00:00:00Z</time>
      </trkpt>
      <trkpt lat="43.249028" lon="-2.823784">
        <ele>301.5</ele>
        <time>0-00-00T00:00:00Z</time>
      </trkpt>
      <trkpt lat="43.249384" lon="-2.823929">
        <ele>300.7</ele>
        <time>0-00-00T00:00:00Z</time>
      </trkpt>
      <trkpt lat="43.249686" lon="-2.823948">
        <ele>299.5</ele>
        <time>0-00-00T00:00:00Z</time>
      </trkpt>
      <trkpt lat="43.249856" lon="-2.823914">
        <ele>300.0</ele>
        <time>0-00-00T00:00:00Z</time>
      </trkpt>
      <trkpt lat="43.250266" lon="-2.824153">
        <ele>307.8</ele>
        <time>0-00-00T00:00:00Z</time>
      </trkpt>
      <trkpt lat="43.250412" lon="-2.824572">
        <ele>316.8</ele>
        <time>0-00-00T00:00:00Z</time>
      </trkpt>
      <trkpt lat="43.250476" lon="-2.824825">
        <ele>321.5</ele>
        <time>0-00-00T00:00:00Z</time>
      </trkpt>
      <trkpt lat="43.250520" lon="-2.824918">
        <ele>323.2</ele>
        <time>0-00-00T00:00:00Z</time>
      </trkpt>
      <trkpt lat="43.250311" lon="-2.825058">
        <ele>326.0</ele>
        <time>0-00-00T00:00:00Z</time>
      </trkpt>
      <trkpt lat="43.250746" lon="-2.825777">
        <ele>335.4</ele>
        <time>0-00-00T00:00:00Z</time>
      </trkpt>
      <trkpt lat="43.250897" lon="-2.826156">
        <ele>338.2</ele>
        <time>0-00-00T00:00:00Z</time>
      </trkpt>
      <trkpt lat="43.251020" lon="-2.826482">
        <ele>339.3</ele>
        <time>0-00-00T00:00:00Z</time>
      </trkpt>
      <trkpt lat="43.251025" lon="-2.826888">
        <ele>342.0</ele>
        <time>0-00-00T00:00:00Z</time>
      </trkpt>
      <trkpt lat="43.250948" lon="-2.827055">
        <ele>344.6</ele>
        <time>0-00-00T00:00:00Z</time>
      </trkpt>
      <trkpt lat="43.250753" lon="-2.827329">
        <ele>350.6</ele>
        <time>0-00-00T00:00:00Z</time>
      </trkpt>
      <trkpt lat="43.250559" lon="-2.827769">
        <ele>359.0</ele>
        <time>0-00-00T00:00:00Z</time>
      </trkpt>
      <trkpt lat="43.250536" lon="-2.828462">
        <ele>364.4</ele>
        <time>0-00-00T00:00:00Z</time>
      </trkpt>
      <trkpt lat="43.250722" lon="-2.829135">
        <ele>363.8</ele>
        <time>0-00-00T00:00:00Z</time>
      </trkpt>
      <trkpt lat="43.250849" lon="-2.829234">
        <ele>362.1</ele>
        <time>0-00-00T00:00:00Z</time>
      </trkpt>
      <trkpt lat="43.250976" lon="-2.829387">
        <ele>361.1</ele>
        <time>0-00-00T00:00:00Z</time>
      </trkpt>
      <trkpt lat="43.251157" lon="-2.829673">
        <ele>361.0</ele>
        <time>0-00-00T00:00:00Z</time>
      </trkpt>
      <trkpt lat="43.250943" lon="-2.829720">
        <ele>363.8</ele>
        <time>0-00-00T00:00:00Z</time>
      </trkpt>
      <trkpt lat="43.250646" lon="-2.829814">
        <ele>367.4</ele>
        <time>0-00-00T00:00:00Z</time>
      </trkpt>
      <trkpt lat="43.250437" lon="-2.830048">
        <ele>369.3</ele>
        <time>0-00-00T00:00:00Z</time>
      </trkpt>
      <trkpt lat="43.250365" lon="-2.830695">
        <ele>367.1</ele>
        <time>0-00-00T00:00:00Z</time>
      </trkpt>
      <trkpt lat="43.250614" lon="-2.831280">
        <ele>365.6</ele>
        <time>0-00-00T00:00:00Z</time>
      </trkpt>
      <trkpt lat="43.250972" lon="-2.832365">
        <ele>363.3</ele>
        <time>0-00-00T00:00:00Z</time>
      </trkpt>
      <trkpt lat="43.251202" lon="-2.833037">
        <ele>362.7</ele>
        <time>0-00-00T00:00:00Z</time>
      </trkpt>
      <trkpt lat="43.251544" lon="-2.833716">
        <ele>362.5</ele>
        <time>0-00-00T00:00:00Z</time>
      </trkpt>
      <trkpt lat="43.252669" lon="-2.836470">
        <ele>375.7</ele>
        <time>0-00-00T00:00:00Z</time>
      </trkpt>
      <trkpt lat="43.253221" lon="-2.837441">
        <ele>385.7</ele>
        <time>0-00-00T00:00:00Z</time>
      </trkpt>
      <trkpt lat="43.253606" lon="-2.838153">
        <ele>398.0</ele>
        <time>0-00-00T00:00:00Z</time>
      </trkpt>
      <trkpt lat="43.253959" lon="-2.838992">
        <ele>401.9</ele>
        <time>0-00-00T00:00:00Z</time>
      </trkpt>
      <trkpt lat="43.254237" lon="-2.839797">
        <ele>399.2</ele>
        <time>0-00-00T00:00:00Z</time>
      </trkpt>
      <trkpt lat="43.254565" lon="-2.840682">
        <ele>404.8</ele>
        <time>0-00-00T00:00:00Z</time>
      </trkpt>
      <trkpt lat="43.254713" lon="-2.841568">
        <ele>404.3</ele>
        <time>0-00-00T00:00:00Z</time>
      </trkpt>
      <trkpt lat="43.254836" lon="-2.842374">
        <ele>403.2</ele>
        <time>0-00-00T00:00:00Z</time>
      </trkpt>
      <trkpt lat="43.255061" lon="-2.843132">
        <ele>403.1</ele>
        <time>0-00-00T00:00:00Z</time>
      </trkpt>
      <trkpt lat="43.255179" lon="-2.843892">
        <ele>399.0</ele>
        <time>0-00-00T00:00:00Z</time>
      </trkpt>
      <trkpt lat="43.255512" lon="-2.844564">
        <ele>396.7</ele>
        <time>0-00-00T00:00:00Z</time>
      </trkpt>
      <trkpt lat="43.255814" lon="-2.845076">
        <ele>394.2</ele>
        <time>0-00-00T00:00:00Z</time>
      </trkpt>
      <trkpt lat="43.256040" lon="-2.846194">
        <ele>383.3</ele>
        <time>0-00-00T00:00:00Z</time>
      </trkpt>
      <trkpt lat="43.256438" lon="-2.848046">
        <ele>364.0</ele>
        <time>0-00-00T00:00:00Z</time>
      </trkpt>
      <trkpt lat="43.256735" lon="-2.848371">
        <ele>363.8</ele>
        <time>0-00-00T00:00:00Z</time>
      </trkpt>
      <trkpt lat="43.256575" lon="-2.848712">
        <ele>360.4</ele>
        <time>0-00-00T00:00:00Z</time>
      </trkpt>
      <trkpt lat="43.256692" lon="-2.848998">
        <ele>360.8</ele>
        <time>0-00-00T00:00:00Z</time>
      </trkpt>
      <trkpt lat="43.256829" lon="-2.849324">
        <ele>361.9</ele>
        <time>0-00-00T00:00:00Z</time>
      </trkpt>
      <trkpt lat="43.256922" lon="-2.849423">
        <ele>363.0</ele>
        <time>0-00-00T00:00:00Z</time>
      </trkpt>
      <trkpt lat="43.256889" lon="-2.850003">
        <ele>361.4</ele>
        <time>0-00-00T00:00:00Z</time>
      </trkpt>
      <trkpt lat="43.257241" lon="-2.850888">
        <ele>359.7</ele>
        <time>0-00-00T00:00:00Z</time>
      </trkpt>
      <trkpt lat="43.257432" lon="-2.851681">
        <ele>356.8</ele>
        <time>0-00-00T00:00:00Z</time>
      </trkpt>
      <trkpt lat="43.257458" lon="-2.852913">
        <ele>358.6</ele>
        <time>0-00-00T00:00:00Z</time>
      </trkpt>
      <trkpt lat="43.257450" lon="-2.853560">
        <ele>361.1</ele>
        <time>0-00-00T00:00:00Z</time>
      </trkpt>
      <trkpt lat="43.257996" lon="-2.854125">
        <ele>377.8</ele>
        <time>0-00-00T00:00:00Z</time>
      </trkpt>
      <trkpt lat="43.258246" lon="-2.855563">
        <ele>385.0</ele>
        <time>0-00-00T00:00:00Z</time>
      </trkpt>
      <trkpt lat="43.258433" lon="-2.856429">
        <ele>396.9</ele>
        <time>0-00-00T00:00:00Z</time>
      </trkpt>
      <trkpt lat="43.258565" lon="-2.857048">
        <ele>403.3</ele>
        <time>0-00-00T00:00:00Z</time>
      </trkpt>
      <trkpt lat="43.258747" lon="-2.857881">
        <ele>411.8</ele>
        <time>0-00-00T00:00:00Z</time>
      </trkpt>
      <trkpt lat="43.258811" lon="-2.858873">
        <ele>407.6</ele>
        <time>0-00-00T00:00:00Z</time>
      </trkpt>
      <trkpt lat="43.259095" lon="-2.859799">
        <ele>411.8</ele>
        <time>0-00-00T00:00:00Z</time>
      </trkpt>
      <trkpt lat="43.259341" lon="-2.860911">
        <ele>422.6</ele>
        <time>0-00-00T00:00:00Z</time>
      </trkpt>
      <trkpt lat="43.259590" lon="-2.861536">
        <ele>432.4</ele>
        <time>0-00-00T00:00:00Z</time>
      </trkpt>
      <trkpt lat="43.259849" lon="-2.862075">
        <ele>438.2</ele>
        <time>0-00-00T00:00:00Z</time>
      </trkpt>
      <trkpt lat="43.260045" lon="-2.862968">
        <ele>448.0</ele>
        <time>0-00-00T00:00:00Z</time>
      </trkpt>
      <trkpt lat="43.260216" lon="-2.863487">
        <ele>454.4</ele>
        <time>0-00-00T00:00:00Z</time>
      </trkpt>
      <trkpt lat="43.260090" lon="-2.863661">
        <ele>454.0</ele>
        <time>0-00-00T00:00:00Z</time>
      </trkpt>
      <trkpt lat="43.260149" lon="-2.864320">
        <ele>460.8</ele>
        <time>0-00-00T00:00:00Z</time>
      </trkpt>
      <trkpt lat="43.260228" lon="-2.864713">
        <ele>464.3</ele>
        <time>0-00-00T00:00:00Z</time>
      </trkpt>
      <trkpt lat="43.260126" lon="-2.865127">
        <ele>459.9</ele>
        <time>0-00-00T00:00:00Z</time>
      </trkpt>
      <trkpt lat="43.260268" lon="-2.865659">
        <ele>454.6</ele>
        <time>0-00-00T00:00:00Z</time>
      </trkpt>
      <trkpt lat="43.260585" lon="-2.865865">
        <ele>452.0</ele>
        <time>0-00-00T00:00:00Z</time>
      </trkpt>
      <trkpt lat="43.260814" lon="-2.866238">
        <ele>444.6</ele>
        <time>0-00-00T00:00:00Z</time>
      </trkpt>
      <trkpt lat="43.260907" lon="-2.866590">
        <ele>436.1</ele>
        <time>0-00-00T00:00:00Z</time>
      </trkpt>
      <trkpt lat="43.261132" lon="-2.866883">
        <ele>431.9</ele>
        <time>0-00-00T00:00:00Z</time>
      </trkpt>
      <trkpt lat="43.261375" lon="-2.867022">
        <ele>430.1</ele>
        <time>0-00-00T00:00:00Z</time>
      </trkpt>
      <trkpt lat="43.261546" lon="-2.867362">
        <ele>422.9</ele>
        <time>0-00-00T00:00:00Z</time>
      </trkpt>
      <trkpt lat="43.261990" lon="-2.868524">
        <ele>409.3</ele>
        <time>0-00-00T00:00:00Z</time>
      </trkpt>
      <trkpt lat="43.262671" lon="-2.869954">
        <ele>393.1</ele>
        <time>0-00-00T00:00:00Z</time>
      </trkpt>
      <trkpt lat="43.263313" lon="-2.870907">
        <ele>395.9</ele>
        <time>0-00-00T00:00:00Z</time>
      </trkpt>
      <trkpt lat="43.263484" lon="-2.871796">
        <ele>400.6</ele>
        <time>0-00-00T00:00:00Z</time>
      </trkpt>
      <trkpt lat="43.264109" lon="-2.873549">
        <ele>401.4</ele>
        <time>0-00-00T00:00:00Z</time>
      </trkpt>
      <trkpt lat="43.265096" lon="-2.878758">
        <ele>340.5</ele>
        <time>0-00-00T00:00:00Z</time>
      </trkpt>
      <trkpt lat="43.265239" lon="-2.879506">
        <ele>338.3</ele>
        <time>0-00-00T00:00:00Z</time>
      </trkpt>
      <trkpt lat="43.265230" lon="-2.880138">
        <ele>335.6</ele>
        <time>0-00-00T00:00:00Z</time>
      </trkpt>
      <trkpt lat="43.264720" lon="-2.879430">
        <ele>323.7</ele>
        <time>0-00-00T00:00:00Z</time>
      </trkpt>
      <trkpt lat="43.264521" lon="-2.878850">
        <ele>324.5</ele>
        <time>0-00-00T00:00:00Z</time>
      </trkpt>
      <trkpt lat="43.264200" lon="-2.878606">
        <ele>321.9</ele>
        <time>0-00-00T00:00:00Z</time>
      </trkpt>
      <trkpt lat="43.263653" lon="-2.877962">
        <ele>324.9</ele>
        <time>0-00-00T00:00:00Z</time>
      </trkpt>
      <trkpt lat="43.263152" lon="-2.877525">
        <ele>322.5</ele>
        <time>0-00-00T00:00:00Z</time>
      </trkpt>
      <trkpt lat="43.262472" lon="-2.876430">
        <ele>323.2</ele>
        <time>0-00-00T00:00:00Z</time>
      </trkpt>
      <trkpt lat="43.262065" lon="-2.875438">
        <ele>323.1</ele>
        <time>0-00-00T00:00:00Z</time>
      </trkpt>
      <trkpt lat="43.262027" lon="-2.874522">
        <ele>333.4</ele>
        <time>0-00-00T00:00:00Z</time>
      </trkpt>
      <trkpt lat="43.261743" lon="-2.873878">
        <ele>330.2</ele>
        <time>0-00-00T00:00:00Z</time>
      </trkpt>
      <trkpt lat="43.261241" lon="-2.872589">
        <ele>332.3</ele>
        <time>0-00-00T00:00:00Z</time>
      </trkpt>
      <trkpt lat="43.261221" lon="-2.871764">
        <ele>339.1</ele>
        <time>0-00-00T00:00:00Z</time>
      </trkpt>
      <trkpt lat="43.260835" lon="-2.871558">
        <ele>329.6</ele>
        <time>0-00-00T00:00:00Z</time>
      </trkpt>
      <trkpt lat="43.260636" lon="-2.871352">
        <ele>326.4</ele>
        <time>0-00-00T00:00:00Z</time>
      </trkpt>
      <trkpt lat="43.260155" lon="-2.871263">
        <ele>314.6</ele>
        <time>0-00-00T00:00:00Z</time>
      </trkpt>
      <trkpt lat="43.259919" lon="-2.871006">
        <ele>312.9</ele>
        <time>0-00-00T00:00:00Z</time>
      </trkpt>
      <trkpt lat="43.259495" lon="-2.870710">
        <ele>310.3</ele>
        <time>0-00-00T00:00:00Z</time>
      </trkpt>
      <trkpt lat="43.258891" lon="-2.870763">
        <ele>302.1</ele>
        <time>0-00-00T00:00:00Z</time>
      </trkpt>
      <trkpt lat="43.258326" lon="-2.871113">
        <ele>284.6</ele>
        <time>0-00-00T00:00:00Z</time>
      </trkpt>
      <trkpt lat="43.258525" lon="-2.871590">
        <ele>279.2</ele>
        <time>0-00-00T00:00:00Z</time>
      </trkpt>
      <trkpt lat="43.258394" lon="-2.872145">
        <ele>268.4</ele>
        <time>0-00-00T00:00:00Z</time>
      </trkpt>
      <trkpt lat="43.258215" lon="-2.872532">
        <ele>257.6</ele>
        <time>0-00-00T00:00:00Z</time>
      </trkpt>
      <trkpt lat="43.257649" lon="-2.872585">
        <ele>242.8</ele>
        <time>0-00-00T00:00:00Z</time>
      </trkpt>
      <trkpt lat="43.257376" lon="-2.872780">
        <ele>232.7</ele>
        <time>0-00-00T00:00:00Z</time>
      </trkpt>
      <trkpt lat="43.257254" lon="-2.873283">
        <ele>223.3</ele>
        <time>0-00-00T00:00:00Z</time>
      </trkpt>
      <trkpt lat="43.257321" lon="-2.873528">
        <ele>222.1</ele>
        <time>0-00-00T00:00:00Z</time>
      </trkpt>
      <trkpt lat="43.257585" lon="-2.873850">
        <ele>224.3</ele>
        <time>0-00-00T00:00:00Z</time>
      </trkpt>
      <trkpt lat="43.257066" lon="-2.873503">
        <ele>217.1</ele>
        <time>0-00-00T00:00:00Z</time>
      </trkpt>
      <trkpt lat="43.256698" lon="-2.873284">
        <ele>214.8</ele>
        <time>0-00-00T00:00:00Z</time>
      </trkpt>
      <trkpt lat="43.256443" lon="-2.872975">
        <ele>216.0</ele>
        <time>0-00-00T00:00:00Z</time>
      </trkpt>
      <trkpt lat="43.256170" lon="-2.872873">
        <ele>217.1</ele>
        <time>0-00-00T00:00:00Z</time>
      </trkpt>
      <trkpt lat="43.256085" lon="-2.872654">
        <ele>224.0</ele>
        <time>0-00-00T00:00:00Z</time>
      </trkpt>
      <trkpt lat="43.255934" lon="-2.872680">
        <ele>225.4</ele>
        <time>0-00-00T00:00:00Z</time>
      </trkpt>
      <trkpt lat="43.255897" lon="-2.873029">
        <ele>216.7</ele>
        <time>0-00-00T00:00:00Z</time>
      </trkpt>
      <trkpt lat="43.255671" lon="-2.873326">
        <ele>210.8</ele>
        <time>0-00-00T00:00:00Z</time>
      </trkpt>
      <trkpt lat="43.255559" lon="-2.873453">
        <ele>207.5</ele>
        <time>0-00-00T00:00:00Z</time>
      </trkpt>
      <trkpt lat="43.255241" lon="-2.873566">
        <ele>205.1</ele>
        <time>0-00-00T00:00:00Z</time>
      </trkpt>
      <trkpt lat="43.254977" lon="-2.873889">
        <ele>196.9</ele>
        <time>0-00-00T00:00:00Z</time>
      </trkpt>
      <trkpt lat="43.254569" lon="-2.874010">
        <ele>195.7</ele>
        <time>0-00-00T00:00:00Z</time>
      </trkpt>
      <trkpt lat="43.254256" lon="-2.874121">
        <ele>197.1</ele>
        <time>0-00-00T00:00:00Z</time>
      </trkpt>
      <trkpt lat="43.253752" lon="-2.874242">
        <ele>201.7</ele>
        <time>0-00-00T00:00:00Z</time>
      </trkpt>
      <trkpt lat="43.253118" lon="-2.874903">
        <ele>189.2</ele>
        <time>0-00-00T00:00:00Z</time>
      </trkpt>
      <trkpt lat="43.252505" lon="-2.874725">
        <ele>188.0</ele>
        <time>0-00-00T00:00:00Z</time>
      </trkpt>
      <trkpt lat="43.252088" lon="-2.874097">
        <ele>193.6</ele>
        <time>0-00-00T00:00:00Z</time>
      </trkpt>
      <trkpt lat="43.251474" lon="-2.873160">
        <ele>213.8</ele>
        <time>0-00-00T00:00:00Z</time>
      </trkpt>
      <trkpt lat="43.251357" lon="-2.872741">
        <ele>224.7</ele>
        <time>0-00-00T00:00:00Z</time>
      </trkpt>
      <trkpt lat="43.251276" lon="-2.872621">
        <ele>227.8</ele>
        <time>0-00-00T00:00:00Z</time>
      </trkpt>
      <trkpt lat="43.250853" lon="-2.872822">
        <ele>237.5</ele>
        <time>0-00-00T00:00:00Z</time>
      </trkpt>
      <trkpt lat="43.250314" lon="-2.873532">
        <ele>238.7</ele>
        <time>0-00-00T00:00:00Z</time>
      </trkpt>
      <trkpt lat="43.250052" lon="-2.873752">
        <ele>235.6</ele>
        <time>0-00-00T00:00:00Z</time>
      </trkpt>
      <trkpt lat="43.249862" lon="-2.874023">
        <ele>230.3</ele>
        <time>0-00-00T00:00:00Z</time>
      </trkpt>
      <trkpt lat="43.249271" lon="-2.874104">
        <ele>221.1</ele>
        <time>0-00-00T00:00:00Z</time>
      </trkpt>
      <trkpt lat="43.248988" lon="-2.875113">
        <ele>195.5</ele>
        <time>0-00-00T00:00:00Z</time>
      </trkpt>
      <trkpt lat="43.248748" lon="-2.875553">
        <ele>184.3</ele>
        <time>0-00-00T00:00:00Z</time>
      </trkpt>
      <trkpt lat="43.248303" lon="-2.876003">
        <ele>168.4</ele>
        <time>0-00-00T00:00:00Z</time>
      </trkpt>
      <trkpt lat="43.248442" lon="-2.876163">
        <ele>170.4</ele>
        <time>0-00-00T00:00:00Z</time>
      </trkpt>
      <trkpt lat="43.248202" lon="-2.876722">
        <ele>160.8</ele>
        <time>0-00-00T00:00:00Z</time>
      </trkpt>
      <trkpt lat="43.247772" lon="-2.877123">
        <ele>146.4</ele>
        <time>0-00-00T00:00:00Z</time>
      </trkpt>
      <trkpt lat="43.247722" lon="-2.877832">
        <ele>137.8</ele>
        <time>0-00-00T00:00:00Z</time>
      </trkpt>
      <trkpt lat="43.247606" lon="-2.878481">
        <ele>131.1</ele>
        <time>0-00-00T00:00:00Z</time>
      </trkpt>
      <trkpt lat="43.247600" lon="-2.879020">
        <ele>130.0</ele>
        <time>0-00-00T00:00:00Z</time>
      </trkpt>
      <trkpt lat="43.247717" lon="-2.879379">
        <ele>133.8</ele>
        <time>0-00-00T00:00:00Z</time>
      </trkpt>
      <trkpt lat="43.247972" lon="-2.879558">
        <ele>139.8</ele>
        <time>0-00-00T00:00:00Z</time>
      </trkpt>
      <trkpt lat="43.248236" lon="-2.879877">
        <ele>135.4</ele>
        <time>0-00-00T00:00:00Z</time>
      </trkpt>
      <trkpt lat="43.247734" lon="-2.881236">
        <ele>121.8</ele>
        <time>0-00-00T00:00:00Z</time>
      </trkpt>
      <trkpt lat="43.247558" lon="-2.881047">
        <ele>117.8</ele>
        <time>0-00-00T00:00:00Z</time>
      </trkpt>
      <trkpt lat="43.247420" lon="-2.880847">
        <ele>114.8</ele>
        <time>0-00-00T00:00:00Z</time>
      </trkpt>
      <trkpt lat="43.247083" lon="-2.880539">
        <ele>106.4</ele>
        <time>0-00-00T00:00:00Z</time>
      </trkpt>
      <trkpt lat="43.246922" lon="-2.880220">
        <ele>100.8</ele>
        <time>0-00-00T00:00:00Z</time>
      </trkpt>
      <trkpt lat="43.246863" lon="-2.879521">
        <ele>102.9</ele>
        <time>0-00-00T00:00:00Z</time>
      </trkpt>
      <trkpt lat="43.246790" lon="-2.879112">
        <ele>99.5</ele>
        <time>0-00-00T00:00:00Z</time>
      </trkpt>
      <trkpt lat="43.246680" lon="-2.879132">
        <ele>94.8</ele>
        <time>0-00-00T00:00:00Z</time>
      </trkpt>
      <trkpt lat="43.246462" lon="-2.879322">
        <ele>85.2</ele>
        <time>0-00-00T00:00:00Z</time>
      </trkpt>
      <trkpt lat="43.246316" lon="-2.879382">
        <ele>78.6</ele>
        <time>0-00-00T00:00:00Z</time>
      </trkpt>
      <trkpt lat="43.245914" lon="-2.879064">
        <ele>64.9</ele>
        <time>0-00-00T00:00:00Z</time>
      </trkpt>
      <trkpt lat="43.245841" lon="-2.878835">
        <ele>63.3</ele>
        <time>0-00-00T00:00:00Z</time>
      </trkpt>
      <trkpt lat="43.244999" lon="-2.878191">
        <ele>46.7</ele>
        <time>0-00-00T00:00:00Z</time>
      </trkpt>
      <trkpt lat="43.244787" lon="-2.877768">
        <ele>45.0</ele>
        <time>0-00-00T00:00:00Z</time>
      </trkpt>
      <trkpt lat="43.244927" lon="-2.876678">
        <ele>55.1</ele>
        <time>0-00-00T00:00:00Z</time>
      </trkpt>
      <trkpt lat="43.244563" lon="-2.875965">
        <ele>57.2</ele>
        <time>0-00-00T00:00:00Z</time>
      </trkpt>
      <trkpt lat="43.243854" lon="-2.875229">
        <ele>56.2</ele>
        <time>0-00-00T00:00:00Z</time>
      </trkpt>
      <trkpt lat="43.243535" lon="-2.874818">
        <ele>54.1</ele>
        <time>0-00-00T00:00:00Z</time>
      </trkpt>
      <trkpt lat="43.242942" lon="-2.874554">
        <ele>41.6</ele>
        <time>0-00-00T00:00:00Z</time>
      </trkpt>
      <trkpt lat="43.242588" lon="-2.874276">
        <ele>38.9</ele>
        <time>0-00-00T00:00:00Z</time>
      </trkpt>
      <trkpt lat="43.242243" lon="-2.874108">
        <ele>36.8</ele>
        <time>0-00-00T00:00:00Z</time>
      </trkpt>
      <trkpt lat="43.241933" lon="-2.873794">
        <ele>37.0</ele>
        <time>0-00-00T00:00:00Z</time>
      </trkpt>
      <trkpt lat="43.241587" lon="-2.873589">
        <ele>38.7</ele>
        <time>0-00-00T00:00:00Z</time>
      </trkpt>
      <trkpt lat="43.241083" lon="-2.873457">
        <ele>38.7</ele>
        <time>0-00-00T00:00:00Z</time>
      </trkpt>
      <trkpt lat="43.240587" lon="-2.873023">
        <ele>39.0</ele>
        <time>0-00-00T00:00:00Z</time>
      </trkpt>
      <trkpt lat="43.239958" lon="-2.872734">
        <ele>41.6</ele>
        <time>0-00-00T00:00:00Z</time>
      </trkpt>
      <trkpt lat="43.239064" lon="-2.872119">
        <ele>40.4</ele>
        <time>0-00-00T00:00:00Z</time>
      </trkpt>
      <trkpt lat="43.237868" lon="-2.870985">
        <ele>42.1</ele>
        <time>0-00-00T00:00:00Z</time>
      </trkpt>
      <trkpt lat="43.237133" lon="-2.869971">
        <ele>42.7</ele>
        <time>0-00-00T00:00:00Z</time>
      </trkpt>
      <trkpt lat="43.236805" lon="-2.869584">
        <ele>42.3</ele>
        <time>0-00-00T00:00:00Z</time>
      </trkpt>
      <trkpt lat="43.236379" lon="-2.868726">
        <ele>43.8</ele>
        <time>0-00-00T00:00:00Z</time>
      </trkpt>
      <trkpt lat="43.235041" lon="-2.867266">
        <ele>42.7</ele>
        <time>0-00-00T00:00:00Z</time>
      </trkpt>
      <trkpt lat="43.234660" lon="-2.866783">
        <ele>42.7</ele>
        <time>0-00-00T00:00:00Z</time>
      </trkpt>
      <trkpt lat="43.234111" lon="-2.866494">
        <ele>41.3</ele>
        <time>0-00-00T00:00:00Z</time>
      </trkpt>
      <trkpt lat="43.233782" lon="-2.865454">
        <ele>42.5</ele>
        <time>0-00-00T00:00:00Z</time>
      </trkpt>
      <trkpt lat="43.233304" lon="-2.864960">
        <ele>39.9</ele>
        <time>0-00-00T00:00:00Z</time>
      </trkpt>
      <trkpt lat="43.233303" lon="-2.864234">
        <ele>40.9</ele>
        <time>0-00-00T00:00:00Z</time>
      </trkpt>
      <trkpt lat="43.233682" lon="-2.863132">
        <ele>44.6</ele>
        <time>0-00-00T00:00:00Z</time>
      </trkpt>
      <trkpt lat="43.233610" lon="-2.862527">
        <ele>43.5</ele>
        <time>0-00-00T00:00:00Z</time>
      </trkpt>
      <trkpt lat="43.233379" lon="-2.861765">
        <ele>42.1</ele>
        <time>0-00-00T00:00:00Z</time>
      </trkpt>
      <trkpt lat="43.233245" lon="-2.861125">
        <ele>41.8</ele>
        <time>0-00-00T00:00:00Z</time>
      </trkpt>
      <trkpt lat="43.233155" lon="-2.860278">
        <ele>40.6</ele>
        <time>0-00-00T00:00:00Z</time>
      </trkpt>
      <trkpt lat="43.233120" lon="-2.859879">
        <ele>40.5</ele>
        <time>0-00-00T00:00:00Z</time>
      </trkpt>
      <trkpt lat="43.232819" lon="-2.859867">
        <ele>39.9</ele>
        <time>0-00-00T00:00:00Z</time>
      </trkpt>
      <trkpt lat="43.232517" lon="-2.859421">
        <ele>39.5</ele>
        <time>0-00-00T00:00:00Z</time>
      </trkpt>
      <trkpt lat="43.232429" lon="-2.859252">
        <ele>39.3</ele>
        <time>0-00-00T00:00:00Z</time>
      </trkpt>
      <trkpt lat="43.232092" lon="-2.859204">
        <ele>38.6</ele>
        <time>0-00-00T00:00:00Z</time>
      </trkpt>
      <trkpt lat="43.232208" lon="-2.859543">
        <ele>39.1</ele>
        <time>0-00-00T00:00:00Z</time>
      </trkpt>
      <trkpt lat="43.231952" lon="-2.859797">
        <ele>38.8</ele>
        <time>0-00-00T00:00:00Z</time>
      </trkpt>
      <trkpt lat="43.231483" lon="-2.859883">
        <ele>38.1</ele>
        <time>0-00-00T00:00:00Z</time>
      </trkpt>
      <trkpt lat="43.230872" lon="-2.859788">
        <ele>39.0</ele>
        <time>0-00-00T00:00:00Z</time>
      </trkpt>
      <trkpt lat="43.230474" lon="-2.859608">
        <ele>39.9</ele>
        <time>0-00-00T00:00:00Z</time>
      </trkpt>
      <trkpt lat="43.229793" lon="-2.859658">
        <ele>52.3</ele>
        <time>0-00-00T00:00:00Z</time>
      </trkpt>
      <trkpt lat="43.229580" lon="-2.859501">
        <ele>55.5</ele>
        <time>0-00-00T00:00:00Z</time>
      </trkpt>
      <trkpt lat="43.229393" lon="-2.858449">
        <ele>55.9</ele>
        <time>0-00-00T00:00:00Z</time>
      </trkpt>
      <trkpt lat="43.229445" lon="-2.857844">
        <ele>51.2</ele>
        <time>0-00-00T00:00:00Z</time>
      </trkpt>
      <trkpt lat="43.229319" lon="-2.856575">
        <ele>46.9</ele>
        <time>0-00-00T00:00:00Z</time>
      </trkpt>
      <trkpt lat="43.229248" lon="-2.855825">
        <ele>43.6</ele>
        <time>0-00-00T00:00:00Z</time>
      </trkpt>
      <trkpt lat="43.229291" lon="-2.855280">
        <ele>42.2</ele>
        <time>0-00-00T00:00:00Z</time>
      </trkpt>
      <trkpt lat="43.229228" lon="-2.854397">
        <ele>43.0</ele>
        <time>0-00-00T00:00:00Z</time>
      </trkpt>
      <trkpt lat="43.229156" lon="-2.853684">
        <ele>44.7</ele>
        <time>0-00-00T00:00:00Z</time>
      </trkpt>
      <trkpt lat="43.229171" lon="-2.852304">
        <ele>63.2</ele>
        <time>0-00-00T00:00:00Z</time>
      </trkpt>
      <trkpt lat="43.229359" lon="-2.849212">
        <ele>40.9</ele>
        <time>0-00-00T00:00:00Z</time>
      </trkpt>
      <trkpt lat="43.229303" lon="-2.848719">
        <ele>40.4</ele>
        <time>0-00-00T00:00:00Z</time>
      </trkpt>
      <trkpt lat="43.228891" lon="-2.848470">
        <ele>39.7</ele>
        <time>0-00-00T00:00:00Z</time>
      </trkpt>
      <trkpt lat="43.229024" lon="-2.847892">
        <ele>63.2</ele>
        <time>0-00-00T00:00:00Z</time>
      </trkpt>
      <trkpt lat="43.229479" lon="-2.848134">
        <ele>42.1</ele>
        <time>0-00-00T00:00:00Z</time>
      </trkpt>
      <trkpt lat="43.230871" lon="-2.840186">
        <ele>61.9</ele>
        <time>0-00-00T00:00:00Z</time>
      </trkpt>
      <trkpt lat="43.231120" lon="-2.839236">
        <ele>63.2</ele>
        <time>0-00-00T00:00:00Z</time>
      </trkpt>
      <trkpt lat="43.231267" lon="-2.838869">
        <ele>63.2</ele>
        <time>0-00-00T00:00:00Z</time>
      </trkpt>
    </trkseg>
  </trk>
</gpx>
